Time,TemperatureF,DewpointF,PressureIn,WindDirection,WindDirectionDegrees,WindSpeedMPH,WindSpeedGustMPH,Humidity,HourlyPrecipIn,Conditions,Clouds,dailyrainin,SoftwareType,DateUTC
2013-08-27 00:00:00,64.4,63.5,30.22,SW,218,0.0,0.0,97,0.00,,,0.00,Wunderground v.1.15,2013-08-27 04:00:00,
2013-08-27 00:01:00,64.4,63.5,30.22,SW,218,0.0,0.0,97,0.00,,,0.00,Wunderground v.1.15,2013-08-27 04:01:00,
2013-08-27 00:06:00,64.3,63.4,30.22,SW,218,0.0,0.0,97,0.00,,,0.00,Wunderground v.1.15,2013-08-27 04:06:00,
2013-08-27 00:11:00,64.2,63.3,30.22,SW,218,0.0,0.0,97,0.00,,,0.00,Wunderground v.1.15,2013-08-27 04:11:00,
2013-08-27 00:16:00,64.2,63.3,30.22,SW,218,0.0,0.0,97,0.00,,,0.00,Wunderground v.1.15,2013-08-27 04:16:00,
2013-08-27 00:17:00,64.2,63.3,30.22,SW,218,0.0,0.0,97,0.00,,,0.00,Wunderground v.1.15,2013-08-27 04:17:00,
2013-08-27 00:21:00,64.1,63.2,30.21,SW,218,0.0,0.0,97,0.00,,,0.00,Wunderground v.1.15,2013-08-27 04:21:00,
2013-08-27 00:22:00,64.1,63.2,30.22,SW,218,0.0,0.0,97,0.00,,,0.00,Wunderground v.1.15,2013-08-27 04:22:00,
2013-08-27 00:26:00,64.0,63.1,30.22,SW,218,0.0,0.0,97,0.00,,,0.00,Wunderground v.1.15,2013-08-27 04:26:00,
2013-08-27 00:27:00,63.9,63.0,30.22,SW,218,0.0,0.0,97,0.00,,,0.00,Wunderground v.1.15,2013-08-27 04:27:00,
2013-08-27 00:31:00,63.8,62.9,30.22,SW,218,0.0,0.0,97,0.00,,,0.00,Wunderground v.1.15,2013-08-27 04:31:00,
2013-08-27 00:32:00,63.8,62.9,30.22,SW,218,0.0,0.0,97,0.00,,,0.00,Wunderground v.1.15,2013-08-27 04:32:00,
2013-08-27 00:36:00,63.8,62.9,30.22,SW,218,0.0,0.0,97,0.00,,,0.00,Wunderground v.1.15,2013-08-27 04:36:00,
2013-08-27 00:37:00,63.8,62.9,30.22,SW,218,0.0,0.0,97,0.00,,,0.00,Wunderground v.1.15,2013-08-27 04:37:00,
2013-08-27 00:41:00,63.7,62.8,30.22,SW,218,0.0,0.0,97,0.00,,,0.00,Wunderground v.1.15,2013-08-27 04:41:00,
2013-08-27 00:42:00,63.7,62.8,30.22,SW,218,0.0,0.0,97,0.00,,,0.00,Wunderground v.1.15,2013-08-27 04:42:00,
2013-08-27 00:47:00,63.6,62.7,30.22,SW,218,0.0,0.0,97,0.00,,,0.00,Wunderground v.1.15,2013-08-27 04:47:00,
2013-08-27 00:52:00,63.4,62.5,30.21,SW,218,0.0,0.0,97,0.00,,,0.00,Wunderground v.1.15,2013-08-27 04:52:00,
2013-08-27 00:57:00,63.3,62.4,30.21,SW,218,0.0,0.0,97,0.00,,,0.00,Wunderground v.1.15,2013-08-27 04:57:00,
2013-08-27 01:02:00,63.3,62.7,30.21,SW,218,0.0,0.0,98,0.00,,,0.00,Wunderground v.1.15,2013-08-27 05:02:00,
2013-08-27 01:07:00,63.3,62.7,30.21,SW,219,0.0,0.0,98,0.00,,,0.00,Wunderground v.1.15,2013-08-27 05:07:00,
2013-08-27 01:08:00,63.3,62.7,30.21,SW,217,0.0,0.0,98,0.00,,,0.00,Wunderground v.1.15,2013-08-27 05:08:00,
2013-08-27 01:12:00,63.2,62.6,30.21,SW,218,0.0,0.0,98,0.00,,,0.00,Wunderground v.1.15,2013-08-27 05:12:00,
2013-08-27 01:13:00,63.2,62.6,30.21,SW,218,0.0,0.0,98,0.00,,,0.00,Wunderground v.1.15,2013-08-27 05:13:00,
2013-08-27 01:17:00,63.1,62.5,30.21,SW,218,0.0,0.0,98,0.00,,,0.00,Wunderground v.1.15,2013-08-27 05:17:00,
2013-08-27 01:18:00,63.1,62.5,30.21,SW,217,0.0,0.0,98,0.00,,,0.00,Wunderground v.1.15,2013-08-27 05:18:00,
2013-08-27 01:23:00,62.9,62.3,30.21,SW,218,0.0,0.0,98,0.00,,,0.00,Wunderground v.1.15,2013-08-27 05:23:00,
2013-08-27 01:28:00,62.8,62.2,30.21,SW,217,0.0,0.0,98,0.00,,,0.00,Wunderground v.1.15,2013-08-27 05:28:00,
2013-08-27 01:29:00,62.7,62.1,30.21,SW,218,0.0,0.0,98,0.00,,,0.00,Wunderground v.1.15,2013-08-27 05:29:00,
2013-08-27 01:33:00,62.6,62.0,30.21,SW,218,0.0,0.0,98,0.00,,,0.00,Wunderground v.1.15,2013-08-27 05:33:00,
2013-08-27 01:34:00,62.6,62.0,30.21,SW,218,0.0,0.0,98,0.00,,,0.00,Wunderground v.1.15,2013-08-27 05:34:00,
2013-08-27 01:38:00,62.6,62.0,30.21,SW,218,0.0,0.0,98,0.00,,,0.00,Wunderground v.1.15,2013-08-27 05:38:00,
2013-08-27 01:39:00,62.7,62.1,30.21,SW,218,0.0,0.0,98,0.00,,,0.00,Wunderground v.1.15,2013-08-27 05:39:00,
2013-08-27 01:43:00,62.8,62.2,30.20,SW,218,0.0,0.0,98,0.00,,,0.00,Wunderground v.1.15,2013-08-27 05:43:00,
2013-08-27 01:44:00,62.8,62.2,30.21,SW,218,0.0,0.0,98,0.00,,,0.00,Wunderground v.1.15,2013-08-27 05:44:00,
2013-08-27 01:48:00,62.6,62.0,30.20,SW,218,0.0,0.0,98,0.00,,,0.00,Wunderground v.1.15,2013-08-27 05:48:00,
2013-08-27 01:49:00,62.6,62.0,30.20,SW,218,0.0,0.0,98,0.00,,,0.00,Wunderground v.1.15,2013-08-27 05:49:00,
2013-08-27 01:53:00,62.6,62.0,30.20,SW,218,0.0,0.0,98,0.00,,,0.00,Wunderground v.1.15,2013-08-27 05:53:00,
2013-08-27 01:54:00,62.6,62.0,30.20,SW,218,0.0,0.0,98,0.00,,,0.00,Wunderground v.1.15,2013-08-27 05:54:00,
2013-08-27 01:58:00,62.6,62.0,30.20,SW,218,0.0,0.0,98,0.00,,,0.00,Wunderground v.1.15,2013-08-27 05:58:00,
2013-08-27 01:59:00,62.6,62.0,30.20,SW,218,0.0,0.0,98,0.00,,,0.00,Wunderground v.1.15,2013-08-27 05:59:00,
2013-08-27 02:00:00,62.5,61.9,30.20,SW,218,0.0,0.0,98,0.00,,,0.00,Wunderground v.1.15,2013-08-27 06:00:00,
2013-08-27 02:03:00,62.3,61.7,30.20,SW,218,0.0,0.0,98,0.00,,,0.00,Wunderground v.1.15,2013-08-27 06:03:00,
2013-08-27 02:04:00,62.3,61.7,30.20,SW,218,0.0,0.0,98,0.00,,,0.00,Wunderground v.1.15,2013-08-27 06:04:00,
2013-08-27 02:05:00,62.2,61.6,30.20,SW,218,0.0,0.0,98,0.00,,,0.00,Wunderground v.1.15,2013-08-27 06:05:00,
2013-08-27 02:08:00,62.2,61.6,30.20,SW,218,0.0,0.0,98,0.00,,,0.00,Wunderground v.1.15,2013-08-27 06:08:00,
2013-08-27 02:09:00,62.2,61.6,30.20,SW,218,0.0,0.0,98,0.00,,,0.00,Wunderground v.1.15,2013-08-27 06:09:00,
2013-08-27 02:10:00,62.2,61.6,30.20,SW,218,0.0,0.0,98,0.00,,,0.00,Wunderground v.1.15,2013-08-27 06:10:00,
2013-08-27 02:14:00,62.1,61.5,30.20,SW,218,0.0,0.0,98,0.00,,,0.00,Wunderground v.1.15,2013-08-27 06:14:00,
2013-08-27 02:15:00,62.1,61.5,30.20,SW,218,0.0,0.0,98,0.00,,,0.00,Wunderground v.1.15,2013-08-27 06:15:00,
2013-08-27 02:19:00,62.3,61.7,30.20,SW,218,0.0,0.0,98,0.00,,,0.00,Wunderground v.1.15,2013-08-27 06:19:00,
2013-08-27 02:20:00,62.4,61.8,30.20,SW,218,0.0,0.0,98,0.00,,,0.00,Wunderground v.1.15,2013-08-27 06:20:00,
2013-08-27 02:24:00,62.2,61.6,30.20,SW,218,0.0,0.0,98,0.00,,,0.00,Wunderground v.1.15,2013-08-27 06:24:00,
2013-08-27 02:25:00,62.2,61.6,30.20,SW,218,0.0,0.0,98,0.00,,,0.00,Wunderground v.1.15,2013-08-27 06:25:00,
2013-08-27 02:29:00,62.0,61.4,30.19,SW,218,0.0,0.0,98,0.00,,,0.00,Wunderground v.1.15,2013-08-27 06:29:00,
2013-08-27 02:30:00,61.9,61.3,30.19,SW,218,0.0,0.0,98,0.00,,,0.00,Wunderground v.1.15,2013-08-27 06:30:00,
2013-08-27 02:34:00,61.9,61.3,30.20,SW,218,0.0,0.0,98,0.00,,,0.00,Wunderground v.1.15,2013-08-27 06:34:00,
2013-08-27 02:35:00,61.9,61.3,30.20,SW,218,0.0,0.0,98,0.00,,,0.00,Wunderground v.1.15,2013-08-27 06:35:00,
2013-08-27 02:39:00,61.9,61.3,30.19,SW,218,0.0,0.0,98,0.00,,,0.00,Wunderground v.1.15,2013-08-27 06:39:00,
2013-08-27 02:40:00,61.9,61.3,30.19,SW,218,0.0,0.0,98,0.00,,,0.00,Wunderground v.1.15,2013-08-27 06:40:00,
2013-08-27 02:44:00,61.9,61.3,30.19,SW,218,0.0,0.0,98,0.00,,,0.00,Wunderground v.1.15,2013-08-27 06:44:00,
2013-08-27 02:45:00,61.9,61.3,30.19,SW,218,0.0,0.0,98,0.00,,,0.00,Wunderground v.1.15,2013-08-27 06:45:00,
2013-08-27 02:49:00,61.8,61.2,30.19,SW,218,0.0,0.0,98,0.00,,,0.00,Wunderground v.1.15,2013-08-27 06:49:00,
2013-08-27 02:50:00,61.8,61.2,30.19,SW,218,0.0,0.0,98,0.00,,,0.00,Wunderground v.1.15,2013-08-27 06:50:00,
2013-08-27 02:54:00,61.8,61.2,30.19,SW,218,0.0,0.0,98,0.00,,,0.00,Wunderground v.1.15,2013-08-27 06:54:00,
2013-08-27 02:55:00,61.8,61.2,30.19,SW,218,0.0,0.0,98,0.00,,,0.00,Wunderground v.1.15,2013-08-27 06:55:00,
2013-08-27 02:59:00,61.9,61.3,30.19,SW,218,0.0,0.0,98,0.00,,,0.00,Wunderground v.1.15,2013-08-27 06:59:00,
2013-08-27 03:00:00,61.9,61.3,30.19,SW,218,0.0,0.0,98,0.00,,,0.00,Wunderground v.1.15,2013-08-27 07:00:00,
2013-08-27 03:04:00,61.8,61.2,30.19,SW,218,0.0,0.0,98,0.00,,,0.00,Wunderground v.1.15,2013-08-27 07:04:00,
2013-08-27 03:05:00,61.8,61.2,30.19,SW,217,0.0,0.0,98,0.00,,,0.00,Wunderground v.1.15,2013-08-27 07:05:00,
2013-08-27 03:09:00,61.7,61.1,30.19,SW,218,0.0,0.0,98,0.00,,,0.00,Wunderground v.1.15,2013-08-27 07:09:00,
2013-08-27 03:10:00,61.7,61.1,30.19,SW,218,0.0,0.0,98,0.00,,,0.00,Wunderground v.1.15,2013-08-27 07:10:00,
2013-08-27 03:14:00,61.6,61.0,30.19,SW,218,0.0,0.0,98,0.00,,,0.00,Wunderground v.1.15,2013-08-27 07:14:00,
2013-08-27 03:15:00,61.6,61.0,30.19,SW,218,0.0,0.0,98,0.00,,,0.00,Wunderground v.1.15,2013-08-27 07:15:00,
2013-08-27 03:19:00,61.5,60.9,30.18,SW,218,0.0,0.0,98,0.00,,,0.00,Wunderground v.1.15,2013-08-27 07:19:00,
2013-08-27 03:20:00,61.5,60.9,30.19,SW,218,0.0,0.0,98,0.00,,,0.00,Wunderground v.1.15,2013-08-27 07:20:00,
2013-08-27 03:24:00,61.5,60.9,30.19,SW,218,0.0,0.0,98,0.00,,,0.00,Wunderground v.1.15,2013-08-27 07:24:00,
2013-08-27 03:25:00,61.5,60.9,30.19,SW,218,0.0,0.0,98,0.00,,,0.00,Wunderground v.1.15,2013-08-27 07:25:00,
2013-08-27 03:26:00,61.6,61.0,30.18,SW,218,0.0,0.0,98,0.00,,,0.00,Wunderground v.1.15,2013-08-27 07:26:00,
2013-08-27 03:29:00,61.5,60.9,30.19,SW,217,0.0,0.0,98,0.00,,,0.00,Wunderground v.1.15,2013-08-27 07:29:00,
2013-08-27 03:30:00,61.5,60.9,30.19,SW,218,0.0,0.0,98,0.00,,,0.00,Wunderground v.1.15,2013-08-27 07:30:00,
2013-08-27 03:34:00,61.7,61.1,30.18,SW,218,0.0,0.0,98,0.00,,,0.00,Wunderground v.1.15,2013-08-27 07:34:00,
2013-08-27 03:35:00,61.8,61.2,30.18,SW,218,0.0,0.0,98,0.00,,,0.00,Wunderground v.1.15,2013-08-27 07:35:00,
2013-08-27 03:36:00,61.8,61.2,30.18,SW,218,0.0,0.0,98,0.00,,,0.00,Wunderground v.1.15,2013-08-27 07:36:00,
2013-08-27 03:39:00,61.8,61.2,30.18,SW,218,0.0,0.0,98,0.00,,,0.00,Wunderground v.1.15,2013-08-27 07:39:00,
2013-08-27 03:40:00,61.8,61.2,30.18,SW,218,0.0,0.0,98,0.00,,,0.00,Wunderground v.1.15,2013-08-27 07:40:00,
2013-08-27 03:45:00,61.6,61.0,30.18,SW,218,0.0,0.0,98,0.00,,,0.00,Wunderground v.1.15,2013-08-27 07:45:00,
2013-08-27 03:50:00,61.4,60.8,30.18,SW,218,0.0,0.0,98,0.00,,,0.00,Wunderground v.1.15,2013-08-27 07:50:00,
2013-08-27 03:51:00,61.5,60.9,30.18,SW,218,0.0,0.0,98,0.00,,,0.00,Wunderground v.1.15,2013-08-27 07:51:00,
2013-08-27 03:55:00,61.6,61.0,30.18,SW,218,0.0,0.0,98,0.00,,,0.00,Wunderground v.1.15,2013-08-27 07:55:00,
2013-08-27 03:56:00,61.6,61.0,30.18,SW,218,0.0,0.0,98,0.00,,,0.00,Wunderground v.1.15,2013-08-27 07:56:00,
2013-08-27 04:00:00,61.7,61.4,30.18,SW,218,0.0,0.0,99,0.00,,,0.00,Wunderground v.1.15,2013-08-27 08:00:00,
2013-08-27 04:01:00,61.7,61.4,30.18,SW,218,0.0,0.0,99,0.00,,,0.00,Wunderground v.1.15,2013-08-27 08:01:00,
2013-08-27 04:05:00,61.8,61.5,30.18,SW,218,0.0,0.0,99,0.00,,,0.00,Wunderground v.1.15,2013-08-27 08:05:00,
2013-08-27 04:06:00,61.8,61.5,30.18,SW,218,0.0,0.0,99,0.00,,,0.00,Wunderground v.1.15,2013-08-27 08:06:00,
2013-08-27 04:10:00,61.7,61.1,30.17,SW,218,0.0,0.0,98,0.00,,,0.00,Wunderground v.1.15,2013-08-27 08:10:00,
2013-08-27 04:11:00,61.6,61.0,30.17,SW,218,0.0,0.0,98,0.00,,,0.00,Wunderground v.1.15,2013-08-27 08:11:00,
2013-08-27 04:15:00,61.5,60.9,30.17,SW,218,0.0,0.0,98,0.00,,,0.00,Wunderground v.1.15,2013-08-27 08:15:00,
2013-08-27 04:16:00,61.4,60.8,30.17,SW,218,0.0,0.0,98,0.00,,,0.00,Wunderground v.1.15,2013-08-27 08:16:00,
2013-08-27 04:20:00,61.4,60.8,30.17,SW,219,0.0,0.0,98,0.00,,,0.00,Wunderground v.1.15,2013-08-27 08:20:00,
2013-08-27 04:21:00,61.4,60.8,30.17,SW,218,0.0,0.0,98,0.00,,,0.00,Wunderground v.1.15,2013-08-27 08:21:00,
2013-08-27 04:25:00,61.3,60.7,30.17,SW,218,0.0,0.0,98,0.00,,,0.00,Wunderground v.1.15,2013-08-27 08:25:00,
2013-08-27 04:26:00,61.3,60.7,30.17,SW,218,0.0,0.0,98,0.00,,,0.00,Wunderground v.1.15,2013-08-27 08:26:00,
2013-08-27 04:30:00,61.3,60.7,30.17,SW,218,0.0,0.0,98,0.00,,,0.00,Wunderground v.1.15,2013-08-27 08:30:00,
2013-08-27 04:31:00,61.3,60.7,30.17,SW,218,0.0,0.0,98,0.00,,,0.00,Wunderground v.1.15,2013-08-27 08:31:00,
2013-08-27 04:35:00,61.4,60.8,30.17,SW,218,0.0,0.0,98,0.00,,,0.00,Wunderground v.1.15,2013-08-27 08:35:00,
2013-08-27 04:36:00,61.4,60.8,30.17,SW,218,0.0,0.0,98,0.00,,,0.00,Wunderground v.1.15,2013-08-27 08:36:00,
2013-08-27 04:41:00,61.4,61.1,30.17,SW,218,0.0,0.0,99,0.00,,,0.00,Wunderground v.1.15,2013-08-27 08:41:00,
2013-08-27 04:46:00,61.2,60.6,30.17,SW,218,0.0,0.0,98,0.00,,,0.00,Wunderground v.1.15,2013-08-27 08:46:00,
2013-08-27 04:51:00,61.2,60.9,30.17,SW,218,0.0,0.0,99,0.00,,,0.00,Wunderground v.1.15,2013-08-27 08:51:00,
2013-08-27 04:56:00,60.9,60.3,30.17,SW,218,0.0,0.0,98,0.00,,,0.00,Wunderground v.1.15,2013-08-27 08:56:00,
2013-08-27 05:01:00,60.8,60.2,30.17,SW,218,0.0,0.0,98,0.00,,,0.00,Wunderground v.1.15,2013-08-27 09:01:00,
2013-08-27 05:06:00,60.8,60.2,30.17,SW,218,0.0,0.0,98,0.00,,,0.00,Wunderground v.1.15,2013-08-27 09:06:00,
2013-08-27 05:07:00,60.9,60.3,30.17,SW,218,0.0,0.0,98,0.00,,,0.00,Wunderground v.1.15,2013-08-27 09:07:00,
2013-08-27 05:11:00,61.0,60.7,30.17,SW,218,0.0,0.0,99,0.00,,,0.00,Wunderground v.1.15,2013-08-27 09:11:00,
2013-08-27 05:12:00,60.9,60.6,30.17,SW,218,0.0,0.0,99,0.00,,,0.00,Wunderground v.1.15,2013-08-27 09:12:00,
2013-08-27 05:16:00,60.8,60.5,30.17,SW,218,0.0,0.0,99,0.00,,,0.00,Wunderground v.1.15,2013-08-27 09:16:00,
2013-08-27 05:17:00,60.7,60.1,30.17,SW,218,0.0,0.0,98,0.00,,,0.00,Wunderground v.1.15,2013-08-27 09:17:00,
2013-08-27 05:21:00,60.6,60.0,30.17,SW,218,0.0,0.0,98,0.00,,,0.00,Wunderground v.1.15,2013-08-27 09:21:00,
2013-08-27 05:22:00,60.7,60.1,30.17,SW,218,0.0,0.0,98,0.00,,,0.00,Wunderground v.1.15,2013-08-27 09:22:00,
2013-08-27 05:26:00,60.6,60.3,30.17,SW,218,0.0,0.0,99,0.00,,,0.00,Wunderground v.1.15,2013-08-27 09:26:00,
2013-08-27 05:27:00,60.6,60.0,30.17,SW,218,0.0,0.0,98,0.00,,,0.00,Wunderground v.1.15,2013-08-27 09:27:00,
2013-08-27 05:31:00,60.6,60.0,30.17,SW,218,0.0,0.0,98,0.00,,,0.00,Wunderground v.1.15,2013-08-27 09:31:00,
2013-08-27 05:32:00,60.5,59.9,30.17,SW,218,0.0,0.0,98,0.00,,,0.00,Wunderground v.1.15,2013-08-27 09:32:00,
2013-08-27 05:36:00,60.5,59.9,30.17,SW,218,0.0,0.0,98,0.00,,,0.00,Wunderground v.1.15,2013-08-27 09:36:00,
2013-08-27 05:37:00,60.5,59.9,30.17,SW,218,0.0,0.0,98,0.00,,,0.00,Wunderground v.1.15,2013-08-27 09:37:00,
2013-08-27 05:41:00,60.3,59.7,30.17,SW,218,0.0,0.0,98,0.00,,,0.00,Wunderground v.1.15,2013-08-27 09:41:00,
2013-08-27 05:42:00,60.3,59.7,30.17,SW,219,0.0,0.0,98,0.00,,,0.00,Wunderground v.1.15,2013-08-27 09:42:00,
2013-08-27 05:46:00,60.5,60.2,30.17,SW,218,0.0,0.0,99,0.00,,,0.00,Wunderground v.1.15,2013-08-27 09:46:00,
2013-08-27 05:47:00,60.5,60.2,30.17,SW,218,0.0,0.0,99,0.00,,,0.00,Wunderground v.1.15,2013-08-27 09:47:00,
2013-08-27 05:51:00,60.7,60.4,30.16,SW,218,0.0,0.0,99,0.00,,,0.00,Wunderground v.1.15,2013-08-27 09:51:00,
2013-08-27 05:52:00,60.7,60.4,30.16,SW,218,0.0,0.0,99,0.00,,,0.00,Wunderground v.1.15,2013-08-27 09:52:00,
2013-08-27 05:56:00,60.6,60.3,30.16,SW,218,0.0,0.0,99,0.00,,,0.00,Wunderground v.1.15,2013-08-27 09:56:00,
2013-08-27 05:57:00,60.6,60.3,30.16,SW,218,0.0,0.0,99,0.00,,,0.00,Wunderground v.1.15,2013-08-27 09:57:00,
2013-08-27 06:01:00,60.5,60.2,30.17,SW,218,0.0,0.0,99,0.00,,,0.00,Wunderground v.1.15,2013-08-27 10:01:00,
2013-08-27 06:02:00,60.5,60.2,30.17,SW,218,0.0,0.0,99,0.00,,,0.00,Wunderground v.1.15,2013-08-27 10:02:00,
2013-08-27 06:06:00,60.5,60.2,30.17,SW,218,0.0,0.0,99,0.00,,,0.00,Wunderground v.1.15,2013-08-27 10:06:00,
2013-08-27 06:07:00,60.5,60.2,30.17,SW,219,0.0,0.0,99,0.00,,,0.00,Wunderground v.1.15,2013-08-27 10:07:00,
2013-08-27 06:08:00,60.5,60.2,30.17,SW,218,0.0,0.0,99,0.00,,,0.00,Wunderground v.1.15,2013-08-27 10:08:00,
2013-08-27 06:11:00,60.7,60.4,30.16,SW,218,0.0,0.0,99,0.00,,,0.00,Wunderground v.1.15,2013-08-27 10:11:00,
2013-08-27 06:12:00,60.8,60.5,30.16,SW,218,0.0,0.0,99,0.00,,,0.00,Wunderground v.1.15,2013-08-27 10:12:00,
2013-08-27 06:13:00,60.8,60.5,30.16,SW,219,0.0,0.0,99,0.00,,,0.00,Wunderground v.1.15,2013-08-27 10:13:00,
2013-08-27 06:16:00,60.7,60.4,30.17,SW,217,0.0,0.0,99,0.00,,,0.00,Wunderground v.1.15,2013-08-27 10:16:00,
2013-08-27 06:17:00,60.7,60.4,30.17,SW,218,0.0,0.0,99,0.00,,,0.00,Wunderground v.1.15,2013-08-27 10:17:00,
2013-08-27 06:18:00,60.7,60.4,30.17,SW,218,0.0,0.0,99,0.00,,,0.00,Wunderground v.1.15,2013-08-27 10:18:00,
2013-08-27 06:21:00,60.7,60.4,30.17,SW,218,0.0,0.0,99,0.00,,,0.00,Wunderground v.1.15,2013-08-27 10:21:00,
2013-08-27 06:22:00,60.7,60.4,30.17,SW,218,0.0,0.0,99,0.00,,,0.00,Wunderground v.1.15,2013-08-27 10:22:00,
2013-08-27 06:23:00,60.8,60.5,30.17,SW,218,0.0,0.0,99,0.00,,,0.00,Wunderground v.1.15,2013-08-27 10:23:00,
2013-08-27 06:26:00,60.7,60.4,30.17,SW,218,0.0,0.0,99,0.00,,,0.00,Wunderground v.1.15,2013-08-27 10:26:00,
2013-08-27 06:27:00,60.7,60.4,30.17,SW,218,0.0,0.0,99,0.00,,,0.00,Wunderground v.1.15,2013-08-27 10:27:00,
2013-08-27 06:28:00,60.6,60.3,30.17,SW,218,0.0,0.0,99,0.00,,,0.00,Wunderground v.1.15,2013-08-27 10:28:00,
2013-08-27 06:31:00,60.6,60.3,30.17,SW,218,0.0,0.0,99,0.00,,,0.00,Wunderground v.1.15,2013-08-27 10:31:00,
2013-08-27 06:32:00,60.6,60.3,30.17,SW,218,0.0,0.0,99,0.00,,,0.00,Wunderground v.1.15,2013-08-27 10:32:00,
2013-08-27 06:33:00,60.6,60.3,30.17,SW,218,0.0,0.0,99,0.00,,,0.00,Wunderground v.1.15,2013-08-27 10:33:00,
2013-08-27 06:36:00,60.5,60.2,30.17,SW,218,0.0,0.0,99,0.00,,,0.00,Wunderground v.1.15,2013-08-27 10:36:00,
2013-08-27 06:37:00,60.4,60.1,30.17,SW,218,0.0,0.0,99,0.00,,,0.00,Wunderground v.1.15,2013-08-27 10:37:00,
2013-08-27 06:38:00,60.4,60.1,30.17,SW,218,0.0,0.0,99,0.00,,,0.00,Wunderground v.1.15,2013-08-27 10:38:00,
2013-08-27 06:41:00,60.3,60.0,30.17,SW,218,0.0,0.0,99,0.00,,,0.00,Wunderground v.1.15,2013-08-27 10:41:00,
2013-08-27 06:42:00,60.2,59.9,30.17,SW,218,0.0,0.0,99,0.00,,,0.00,Wunderground v.1.15,2013-08-27 10:42:00,
2013-08-27 06:44:00,60.1,59.8,30.17,SW,218,0.0,0.0,99,0.00,,,0.00,Wunderground v.1.15,2013-08-27 10:44:00,
2013-08-27 06:47:00,60.1,59.8,30.17,SW,218,0.0,0.0,99,0.00,,,0.00,Wunderground v.1.15,2013-08-27 10:47:00,
2013-08-27 06:48:00,60.1,59.8,30.17,SW,218,0.0,0.0,99,0.00,,,0.00,Wunderground v.1.15,2013-08-27 10:48:00,
2013-08-27 06:49:00,60.1,59.8,30.17,SW,218,0.0,0.0,99,0.00,,,0.00,Wunderground v.1.15,2013-08-27 10:49:00,
2013-08-27 06:52:00,60.3,60.0,30.17,SW,218,0.0,0.0,99,0.00,,,0.00,Wunderground v.1.15,2013-08-27 10:52:00,
2013-08-27 06:53:00,60.3,60.0,30.17,SW,218,0.0,0.0,99,0.00,,,0.00,Wunderground v.1.15,2013-08-27 10:53:00,
2013-08-27 06:54:00,60.3,60.0,30.17,SW,218,0.0,0.0,99,0.00,,,0.00,Wunderground v.1.15,2013-08-27 10:54:00,
2013-08-27 06:57:00,60.3,60.0,30.17,SW,218,0.0,0.0,99,0.00,,,0.00,Wunderground v.1.15,2013-08-27 10:57:00,
2013-08-27 06:58:00,60.2,59.9,30.17,SW,218,0.0,0.0,99,0.00,,,0.00,Wunderground v.1.15,2013-08-27 10:58:00,
2013-08-27 06:59:00,60.2,59.9,30.17,SW,217,0.0,0.0,99,0.00,,,0.00,Wunderground v.1.15,2013-08-27 10:59:00,
2013-08-27 07:02:00,60.1,59.8,30.16,SW,218,0.0,0.0,99,0.00,,,0.00,Wunderground v.1.15,2013-08-27 11:02:00,
2013-08-27 07:03:00,60.1,59.8,30.16,SW,218,0.0,0.0,99,0.00,,,0.00,Wunderground v.1.15,2013-08-27 11:03:00,
2013-08-27 07:04:00,60.1,59.8,30.16,SW,218,0.0,0.0,99,0.00,,,0.00,Wunderground v.1.15,2013-08-27 11:04:00,
2013-08-27 07:07:00,60.1,59.8,30.16,SW,218,0.0,0.0,99,0.00,,,0.00,Wunderground v.1.15,2013-08-27 11:07:00,
2013-08-27 07:08:00,60.1,59.8,30.16,SW,218,0.0,0.0,99,0.00,,,0.00,Wunderground v.1.15,2013-08-27 11:08:00,
2013-08-27 07:09:00,60.1,59.8,30.17,SW,218,0.0,0.0,99,0.00,,,0.00,Wunderground v.1.15,2013-08-27 11:09:00,
2013-08-27 07:12:00,60.1,59.8,30.17,SW,218,0.0,0.0,99,0.00,,,0.00,Wunderground v.1.15,2013-08-27 11:12:00,
2013-08-27 07:13:00,60.1,59.8,30.17,SW,218,0.0,0.0,99,0.00,,,0.00,Wunderground v.1.15,2013-08-27 11:13:00,
2013-08-27 07:14:00,60.1,59.8,30.17,SW,218,0.0,0.0,99,0.00,,,0.00,Wunderground v.1.15,2013-08-27 11:14:00,
2013-08-27 07:17:00,60.2,59.9,30.17,SW,218,0.0,0.0,99,0.00,,,0.00,Wunderground v.1.15,2013-08-27 11:17:00,
2013-08-27 07:18:00,60.2,59.9,30.17,SW,218,0.0,0.0,99,0.00,,,0.00,Wunderground v.1.15,2013-08-27 11:18:00,
2013-08-27 07:19:00,60.4,60.1,30.17,SW,217,0.0,0.0,99,0.00,,,0.00,Wunderground v.1.15,2013-08-27 11:19:00,
2013-08-27 07:22:00,60.5,60.2,30.17,SW,218,0.0,0.0,99,0.00,,,0.00,Wunderground v.1.15,2013-08-27 11:22:00,
2013-08-27 07:23:00,60.5,60.2,30.17,SW,218,0.0,0.0,99,0.00,,,0.00,Wunderground v.1.15,2013-08-27 11:23:00,
2013-08-27 07:25:00,60.5,60.2,30.17,SW,218,0.0,0.0,99,0.00,,,0.00,Wunderground v.1.15,2013-08-27 11:25:00,
2013-08-27 07:27:00,60.4,60.1,30.17,SW,218,0.0,0.0,99,0.00,,,0.00,Wunderground v.1.15,2013-08-27 11:27:00,
2013-08-27 07:28:00,60.4,60.1,30.17,SW,218,0.0,0.0,99,0.00,,,0.00,Wunderground v.1.15,2013-08-27 11:28:00,
2013-08-27 07:29:00,60.4,60.1,30.17,SW,218,0.0,0.0,99,0.00,,,0.00,Wunderground v.1.15,2013-08-27 11:29:00,
2013-08-27 07:30:00,60.4,60.1,30.17,SW,218,0.0,0.0,99,0.00,,,0.00,Wunderground v.1.15,2013-08-27 11:30:00,
2013-08-27 07:32:00,60.5,60.2,30.17,SW,218,0.0,0.0,99,0.00,,,0.00,Wunderground v.1.15,2013-08-27 11:32:00,
2013-08-27 07:33:00,60.6,60.3,30.17,SW,218,0.0,0.0,99,0.00,,,0.00,Wunderground v.1.15,2013-08-27 11:33:00,
2013-08-27 07:34:00,60.7,60.4,30.17,SW,218,0.0,0.0,99,0.00,,,0.00,Wunderground v.1.15,2013-08-27 11:34:00,
2013-08-27 07:35:00,60.7,60.4,30.17,SW,218,0.0,0.0,99,0.00,,,0.00,Wunderground v.1.15,2013-08-27 11:35:00,
2013-08-27 07:37:00,60.8,60.5,30.17,SW,218,0.0,0.0,99,0.00,,,0.00,Wunderground v.1.15,2013-08-27 11:37:00,
2013-08-27 07:38:00,60.8,60.5,30.17,SW,218,0.0,0.0,99,0.00,,,0.00,Wunderground v.1.15,2013-08-27 11:38:00,
2013-08-27 07:39:00,60.8,60.5,30.17,SW,217,0.0,0.0,99,0.00,,,0.00,Wunderground v.1.15,2013-08-27 11:39:00,
2013-08-27 07:40:00,60.8,60.5,30.17,SW,218,0.0,0.0,99,0.00,,,0.00,Wunderground v.1.15,2013-08-27 11:40:00,
2013-08-27 07:42:00,60.9,60.6,30.17,SW,217,0.0,0.0,99,0.00,,,0.00,Wunderground v.1.15,2013-08-27 11:42:00,
2013-08-27 07:43:00,60.9,60.6,30.17,SW,218,0.0,0.0,99,0.00,,,0.00,Wunderground v.1.15,2013-08-27 11:43:00,
2013-08-27 07:44:00,60.9,60.6,30.17,SW,217,0.0,0.0,99,0.00,,,0.00,Wunderground v.1.15,2013-08-27 11:44:00,
2013-08-27 07:45:00,61.0,60.7,30.16,SW,218,0.0,0.0,99,0.00,,,0.00,Wunderground v.1.15,2013-08-27 11:45:00,
2013-08-27 07:47:00,61.1,60.8,30.16,SW,218,0.0,0.0,99,0.00,,,0.00,Wunderground v.1.15,2013-08-27 11:47:00,
2013-08-27 07:48:00,61.1,60.8,30.16,SW,218,0.0,0.0,99,0.00,,,0.00,Wunderground v.1.15,2013-08-27 11:48:00,
2013-08-27 07:50:00,61.1,60.8,30.16,SW,218,0.0,0.0,99,0.00,,,0.00,Wunderground v.1.15,2013-08-27 11:50:00,
2013-08-27 07:52:00,61.2,60.9,30.17,SW,218,0.0,0.0,99,0.00,,,0.00,Wunderground v.1.15,2013-08-27 11:52:00,
2013-08-27 07:53:00,61.2,60.9,30.17,SW,218,0.0,0.0,99,0.00,,,0.00,Wunderground v.1.15,2013-08-27 11:53:00,
2013-08-27 07:55:00,61.3,61.0,30.17,SW,217,0.0,0.0,99,0.00,,,0.00,Wunderground v.1.15,2013-08-27 11:55:00,
2013-08-27 07:58:00,61.3,61.0,30.17,SW,218,0.0,0.0,99,0.00,,,0.00,Wunderground v.1.15,2013-08-27 11:58:00,
2013-08-27 07:59:00,61.4,61.1,30.17,SW,218,0.0,0.0,99,0.00,,,0.00,Wunderground v.1.15,2013-08-27 11:59:00,
2013-08-27 08:00:00,61.4,61.1,30.17,SW,218,0.0,0.0,99,0.00,,,0.00,Wunderground v.1.15,2013-08-27 12:00:00,
2013-08-27 08:03:00,61.5,61.2,30.17,SW,217,0.0,0.0,99,0.00,,,0.00,Wunderground v.1.15,2013-08-27 12:03:00,
2013-08-27 08:04:00,61.5,61.2,30.17,SW,217,0.0,0.0,99,0.00,,,0.00,Wunderground v.1.15,2013-08-27 12:04:00,
2013-08-27 08:05:00,61.5,61.2,30.17,SW,218,0.0,0.0,99,0.00,,,0.00,Wunderground v.1.15,2013-08-27 12:05:00,
2013-08-27 08:08:00,61.7,61.4,30.17,SW,218,0.0,0.0,99,0.00,,,0.00,Wunderground v.1.15,2013-08-27 12:08:00,
2013-08-27 08:09:00,61.7,61.4,30.17,SW,218,0.0,0.0,99,0.00,,,0.00,Wunderground v.1.15,2013-08-27 12:09:00,
2013-08-27 08:10:00,61.8,61.5,30.17,SW,218,0.0,0.0,99,0.00,,,0.00,Wunderground v.1.15,2013-08-27 12:10:00,
2013-08-27 08:13:00,62.0,61.7,30.17,SW,218,0.0,0.0,99,0.00,,,0.00,Wunderground v.1.15,2013-08-27 12:13:00,
2013-08-27 08:14:00,62.1,61.8,30.17,SW,218,0.0,0.0,99,0.00,,,0.00,Wunderground v.1.15,2013-08-27 12:14:00,
2013-08-27 08:15:00,62.2,61.9,30.17,SW,218,0.0,0.0,99,0.00,,,0.00,Wunderground v.1.15,2013-08-27 12:15:00,
2013-08-27 08:18:00,62.5,62.2,30.17,SW,218,0.0,0.0,99,0.00,,,0.00,Wunderground v.1.15,2013-08-27 12:18:00,
2013-08-27 08:19:00,62.5,62.2,30.17,SW,218,0.0,0.0,99,0.00,,,0.00,Wunderground v.1.15,2013-08-27 12:19:00,
2013-08-27 08:20:00,62.7,62.4,30.17,SW,218,0.0,0.0,99,0.00,,,0.00,Wunderground v.1.15,2013-08-27 12:20:00,
2013-08-27 08:23:00,63.0,62.7,30.17,SW,218,0.0,0.0,99,0.00,,,0.00,Wunderground v.1.15,2013-08-27 12:23:00,
2013-08-27 08:24:00,63.0,62.7,30.17,SW,218,0.0,0.0,99,0.00,,,0.00,Wunderground v.1.15,2013-08-27 12:24:00,
2013-08-27 08:25:00,63.2,62.9,30.17,SW,218,0.0,0.0,99,0.00,,,0.00,Wunderground v.1.15,2013-08-27 12:25:00,
2013-08-27 08:28:00,63.5,63.2,30.17,SW,218,0.0,0.0,99,0.00,,,0.00,Wunderground v.1.15,2013-08-27 12:28:00,
2013-08-27 08:29:00,63.6,63.3,30.17,SW,218,0.0,0.0,99,0.00,,,0.00,Wunderground v.1.15,2013-08-27 12:29:00,
2013-08-27 08:30:00,63.9,63.6,30.17,SW,218,0.0,0.0,99,0.00,,,0.00,Wunderground v.1.15,2013-08-27 12:30:00,
2013-08-27 08:31:00,63.9,63.3,30.17,SW,218,0.0,0.0,98,0.00,,,0.00,Wunderground v.1.15,2013-08-27 12:31:00,
2013-08-27 08:33:00,64.2,63.6,30.17,SW,218,0.0,0.0,98,0.00,,,0.00,Wunderground v.1.15,2013-08-27 12:33:00,
2013-08-27 08:34:00,64.3,63.7,30.17,SW,218,0.0,0.0,98,0.00,,,0.00,Wunderground v.1.15,2013-08-27 12:34:00,
2013-08-27 08:35:00,64.5,63.9,30.17,SW,218,0.0,0.0,98,0.00,,,0.00,Wunderground v.1.15,2013-08-27 12:35:00,
2013-08-27 08:36:00,64.5,63.9,30.17,SW,218,0.0,0.0,98,0.00,,,0.00,Wunderground v.1.15,2013-08-27 12:36:00,
2013-08-27 08:38:00,64.9,64.3,30.17,SW,218,0.0,0.0,98,0.00,,,0.00,Wunderground v.1.15,2013-08-27 12:38:00,
2013-08-27 08:39:00,64.9,64.3,30.17,SW,218,0.0,0.0,98,0.00,,,0.00,Wunderground v.1.15,2013-08-27 12:39:00,
2013-08-27 08:40:00,65.1,64.5,30.17,SW,218,0.0,0.0,98,0.00,,,0.00,Wunderground v.1.15,2013-08-27 12:40:00,
2013-08-27 08:41:00,65.2,64.6,30.17,SW,218,0.0,0.0,98,0.00,,,0.00,Wunderground v.1.15,2013-08-27 12:41:00,
2013-08-27 08:43:00,65.5,64.9,30.17,SW,218,0.0,0.0,98,0.00,,,0.00,Wunderground v.1.15,2013-08-27 12:43:00,
2013-08-27 08:44:00,65.6,65.0,30.17,SW,218,0.0,0.0,98,0.00,,,0.00,Wunderground v.1.15,2013-08-27 12:44:00,
2013-08-27 08:46:00,65.7,65.1,30.17,SW,218,0.0,0.0,98,0.00,,,0.00,Wunderground v.1.15,2013-08-27 12:46:00,
2013-08-27 08:48:00,66.0,65.4,30.17,SW,218,0.0,0.0,98,0.00,,,0.00,Wunderground v.1.15,2013-08-27 12:48:00,
2013-08-27 08:49:00,66.0,65.4,30.17,SW,218,0.0,0.0,98,0.00,,,0.00,Wunderground v.1.15,2013-08-27 12:49:00,
2013-08-27 08:51:00,66.2,65.6,30.17,SW,218,0.0,0.0,98,0.00,,,0.00,Wunderground v.1.15,2013-08-27 12:51:00,
2013-08-27 08:53:00,66.6,66.0,30.17,SW,218,0.0,0.0,98,0.00,,,0.00,Wunderground v.1.15,2013-08-27 12:53:00,
2013-08-27 08:54:00,66.6,66.0,30.17,SW,218,0.0,0.0,98,0.00,,,0.00,Wunderground v.1.15,2013-08-27 12:54:00,
2013-08-27 08:56:00,66.8,66.2,30.17,SW,218,0.0,0.0,98,0.00,,,0.00,Wunderground v.1.15,2013-08-27 12:56:00,
2013-08-27 08:59:00,67.1,66.5,30.17,SW,218,0.0,0.0,98,0.00,,,0.00,Wunderground v.1.15,2013-08-27 12:59:00,
2013-08-27 09:01:00,67.3,66.7,30.17,SW,218,0.0,0.0,98,0.00,,,0.00,Wunderground v.1.15,2013-08-27 13:01:00,
2013-08-27 09:04:00,67.6,67.0,30.17,SW,218,0.0,0.0,98,0.00,,,0.00,Wunderground v.1.15,2013-08-27 13:04:00,
2013-08-27 09:06:00,67.8,67.2,30.17,SW,218,0.0,0.0,98,0.00,,,0.00,Wunderground v.1.15,2013-08-27 13:06:00,
2013-08-27 09:09:00,68.0,67.4,30.17,SW,218,0.0,0.0,98,0.00,,,0.00,Wunderground v.1.15,2013-08-27 13:09:00,
2013-08-27 09:11:00,68.1,67.5,30.17,SW,218,0.0,0.0,98,0.00,,,0.00,Wunderground v.1.15,2013-08-27 13:11:00,
2013-08-27 09:14:00,68.2,67.6,30.16,WSW,248,0.0,1.0,98,0.00,,,0.00,Wunderground v.1.15,2013-08-27 13:14:00,
2013-08-27 09:16:00,68.2,67.6,30.16,WSW,249,0.0,1.0,98,0.00,,,0.00,Wunderground v.1.15,2013-08-27 13:16:00,
2013-08-27 09:19:00,68.7,68.1,30.16,WSW,249,0.0,1.0,98,0.00,,,0.00,Wunderground v.1.15,2013-08-27 13:19:00,
2013-08-27 09:21:00,68.8,68.2,30.17,WSW,250,0.0,1.0,98,0.00,,,0.00,Wunderground v.1.15,2013-08-27 13:21:00,
2013-08-27 09:24:00,69.2,68.6,30.16,WSW,246,0.0,1.0,98,0.00,,,0.00,Wunderground v.1.15,2013-08-27 13:24:00,
2013-08-27 09:26:00,69.3,68.7,30.16,WSW,246,0.0,1.0,98,0.00,,,0.00,Wunderground v.1.15,2013-08-27 13:26:00,
2013-08-27 09:29:00,69.8,69.2,30.16,WSW,246,0.0,1.0,98,0.00,,,0.00,Wunderground v.1.15,2013-08-27 13:29:00,
2013-08-27 09:31:00,70.1,69.5,30.16,SSW,212,0.0,2.0,98,0.00,,,0.00,Wunderground v.1.15,2013-08-27 13:31:00,
2013-08-27 09:34:00,70.4,69.5,30.16,SSW,197,0.0,2.0,97,0.00,,,0.00,Wunderground v.1.15,2013-08-27 13:34:00,
2013-08-27 09:36:00,70.8,69.0,30.16,SSW,197,0.0,2.0,94,0.00,,,0.00,Wunderground v.1.15,2013-08-27 13:36:00,
2013-08-27 09:39:00,71.6,68.8,30.16,SSW,198,0.0,2.0,91,0.00,,,0.00,Wunderground v.1.15,2013-08-27 13:39:00,
2013-08-27 09:41:00,72.0,68.6,30.16,WSW,238,0.0,2.0,89,0.00,,,0.00,Wunderground v.1.15,2013-08-27 13:41:00,
2013-08-27 09:44:00,72.9,69.1,30.15,WSW,258,0.0,3.0,88,0.00,,,0.00,Wunderground v.1.15,2013-08-27 13:44:00,
2013-08-27 09:45:00,72.9,69.1,30.15,WSW,258,0.0,3.0,88,0.00,,,0.00,Wunderground v.1.15,2013-08-27 13:45:00,
2013-08-27 09:46:00,73.3,69.2,30.16,SW,232,0.0,3.0,87,0.00,,,0.00,Wunderground v.1.15,2013-08-27 13:46:00,
2013-08-27 09:47:00,73.3,69.2,30.16,West,262,1.0,3.0,87,0.00,,,0.00,Wunderground v.1.15,2013-08-27 13:47:00,
2013-08-27 09:49:00,73.9,68.8,30.16,SSW,203,1.0,1.0,84,0.00,,,0.00,Wunderground v.1.15,2013-08-27 13:49:00,
2013-08-27 09:50:00,73.9,68.8,30.16,SSW,203,1.0,1.0,84,0.00,,,0.00,Wunderground v.1.15,2013-08-27 13:50:00,
2013-08-27 09:52:00,74.3,69.1,30.16,SSW,210,2.0,2.0,84,0.00,,,0.00,Wunderground v.1.15,2013-08-27 13:52:00,
2013-08-27 09:55:00,74.8,69.3,30.16,SSW,207,1.0,2.0,83,0.00,,,0.00,Wunderground v.1.15,2013-08-27 13:55:00,
2013-08-27 09:57:00,75.1,69.2,30.16,SW,218,1.0,2.0,82,0.00,,,0.00,Wunderground v.1.15,2013-08-27 13:57:00,
2013-08-27 10:00:00,75.6,69.4,30.16,West,259,1.0,1.0,81,0.00,,,0.00,Wunderground v.1.15,2013-08-27 14:00:00,
2013-08-27 10:02:00,75.9,69.3,30.16,SW,229,0.0,1.0,80,0.00,,,0.00,Wunderground v.1.15,2013-08-27 14:02:00,
2013-08-27 10:05:00,76.2,68.1,30.16,SW,224,1.0,3.0,76,0.00,,,0.00,Wunderground v.1.15,2013-08-27 14:05:00,
2013-08-27 10:07:00,76.5,69.5,30.16,West,259,1.0,3.0,79,0.00,,,0.00,Wunderground v.1.15,2013-08-27 14:07:00,
2013-08-27 10:10:00,76.9,69.1,30.16,NW,307,1.0,1.0,77,0.00,,,0.00,Wunderground v.1.15,2013-08-27 14:10:00,
2013-08-27 10:12:00,77.0,68.1,30.16,WNW,288,0.0,1.0,74,0.00,,,0.00,Wunderground v.1.15,2013-08-27 14:12:00,
2013-08-27 10:15:00,77.3,69.9,30.16,WSW,238,0.0,2.0,78,0.00,,,0.00,Wunderground v.1.15,2013-08-27 14:15:00,
2013-08-27 10:17:00,77.4,70.0,30.16,WSW,238,0.0,2.0,78,0.00,,,0.00,Wunderground v.1.15,2013-08-27 14:17:00,
2013-08-27 10:20:00,77.8,70.0,30.16,WSW,238,0.0,1.0,77,0.00,,,0.00,Wunderground v.1.15,2013-08-27 14:20:00,
2013-08-27 10:22:00,78.1,69.9,30.16,West,267,0.0,1.0,76,0.00,,,0.00,Wunderground v.1.15,2013-08-27 14:22:00,
2013-08-27 10:23:00,78.2,70.0,30.16,West,267,0.0,1.0,76,0.00,,,0.00,Wunderground v.1.15,2013-08-27 14:23:00,
2013-08-27 10:25:00,78.3,70.5,30.16,WSW,243,2.0,2.0,77,0.00,,,0.00,Wunderground v.1.15,2013-08-27 14:25:00,
2013-08-27 10:27:00,78.2,69.6,30.16,SSW,207,1.0,3.0,75,0.00,,,0.00,Wunderground v.1.15,2013-08-27 14:27:00,
2013-08-27 10:28:00,78.2,69.6,30.16,SSW,210,1.0,3.0,75,0.00,,,0.00,Wunderground v.1.15,2013-08-27 14:28:00,
2013-08-27 10:30:00,78.2,69.6,30.16,SSW,201,0.0,1.0,75,0.00,,,0.00,Wunderground v.1.15,2013-08-27 14:30:00,
2013-08-27 10:32:00,78.3,69.3,30.16,SSW,212,2.0,3.0,74,0.00,,,0.00,Wunderground v.1.15,2013-08-27 14:32:00,
2013-08-27 10:33:00,78.4,69.4,30.16,South,191,2.0,3.0,74,0.00,,,0.00,Wunderground v.1.15,2013-08-27 14:33:00,
2013-08-27 10:35:00,78.4,69.4,30.16,SSE,165,2.0,4.0,74,0.00,,,0.00,Wunderground v.1.15,2013-08-27 14:35:00,
2013-08-27 10:37:00,78.5,69.9,30.16,SSW,212,2.0,4.0,75,0.00,,,0.00,Wunderground v.1.15,2013-08-27 14:37:00,
2013-08-27 10:38:00,78.5,69.9,30.16,WSW,238,2.0,4.0,75,0.00,,,0.00,Wunderground v.1.15,2013-08-27 14:38:00,
2013-08-27 10:40:00,78.7,70.1,30.16,SW,232,0.0,2.0,75,0.00,,,0.00,Wunderground v.1.15,2013-08-27 14:40:00,
2013-08-27 10:42:00,78.9,69.1,30.16,North,8,1.0,2.0,72,0.00,,,0.00,Wunderground v.1.15,2013-08-27 14:42:00,
2013-08-27 10:43:00,78.9,68.7,30.16,NE,39,3.0,3.0,71,0.00,,,0.00,Wunderground v.1.15,2013-08-27 14:43:00,
2013-08-27 10:45:00,79.1,68.1,30.16,NW,319,3.0,3.0,69,0.00,,,0.00,Wunderground v.1.15,2013-08-27 14:45:00,
2013-08-27 10:47:00,79.1,68.1,30.16,WNW,302,1.0,3.0,69,0.00,,,0.00,Wunderground v.1.15,2013-08-27 14:47:00,
2013-08-27 10:48:00,79.2,68.1,30.16,WNW,302,1.0,3.0,69,0.00,,,0.00,Wunderground v.1.15,2013-08-27 14:48:00,
2013-08-27 10:50:00,79.5,68.4,30.16,WNW,302,0.0,1.0,69,0.00,,,0.00,Wunderground v.1.15,2013-08-27 14:50:00,
2013-08-27 10:51:00,79.5,68.4,30.16,WNW,302,0.0,1.0,69,0.00,,,0.00,Wunderground v.1.15,2013-08-27 14:51:00,
2013-08-27 10:52:00,79.8,69.6,30.16,West,267,0.0,1.0,71,0.00,,,0.00,Wunderground v.1.15,2013-08-27 14:52:00,
2013-08-27 10:53:00,80.0,69.3,30.16,SW,221,1.0,2.0,70,0.00,,,0.00,Wunderground v.1.15,2013-08-27 14:53:00,
2013-08-27 10:55:00,80.2,69.1,30.15,WSW,238,2.0,2.0,69,0.00,,,0.00,Wunderground v.1.15,2013-08-27 14:55:00,
2013-08-27 10:56:00,80.2,69.1,30.15,SW,229,1.0,2.0,69,0.00,,,0.00,Wunderground v.1.15,2013-08-27 14:56:00,
2013-08-27 10:57:00,80.4,70.5,30.15,West,262,1.0,2.0,72,0.00,,,0.00,Wunderground v.1.15,2013-08-27 14:57:00,
2013-08-27 10:58:00,80.5,69.8,30.15,NNE,22,2.0,2.0,70,0.00,,,0.00,Wunderground v.1.15,2013-08-27 14:58:00,
2013-08-27 11:00:00,80.6,68.6,30.15,ENE,77,0.0,1.0,67,0.00,,,0.00,Wunderground v.1.15,2013-08-27 15:00:00,
2013-08-27 11:01:00,80.6,68.6,30.15,ENE,77,0.0,1.0,67,0.00,,,0.00,Wunderground v.1.15,2013-08-27 15:01:00,
2013-08-27 11:02:00,80.9,69.8,30.15,ENE,77,0.0,1.0,69,0.00,,,0.00,Wunderground v.1.15,2013-08-27 15:02:00,
2013-08-27 11:03:00,81.0,69.4,30.15,ESE,114,1.0,1.0,68,0.00,,,0.00,Wunderground v.1.15,2013-08-27 15:03:00,
2013-08-27 11:05:00,81.1,69.1,30.15,East,83,2.0,3.0,67,0.00,,,0.00,Wunderground v.1.15,2013-08-27 15:05:00,
2013-08-27 11:06:00,81.1,69.1,30.15,East,86,2.0,3.0,67,0.00,,,0.00,Wunderground v.1.15,2013-08-27 15:06:00,
2013-08-27 11:08:00,81.0,68.6,30.15,NE,46,3.0,6.0,66,0.00,,,0.00,Wunderground v.1.15,2013-08-27 15:08:00,
2013-08-27 11:10:00,81.1,68.7,30.15,East,94,2.0,4.0,66,0.00,,,0.00,Wunderground v.1.15,2013-08-27 15:10:00,
2013-08-27 11:11:00,81.1,68.7,30.15,East,94,2.0,4.0,66,0.00,,,0.00,Wunderground v.1.15,2013-08-27 15:11:00,
2013-08-27 11:13:00,81.0,69.0,30.15,NE,50,2.0,4.0,67,0.00,,,0.00,Wunderground v.1.15,2013-08-27 15:13:00,
2013-08-27 11:15:00,81.0,69.9,30.16,NW,319,2.0,5.0,69,0.00,,,0.00,Wunderground v.1.15,2013-08-27 15:15:00,
2013-08-27 11:16:00,81.0,69.9,30.16,WNW,300,1.0,5.0,69,0.00,,,0.00,Wunderground v.1.15,2013-08-27 15:16:00,
2013-08-27 11:18:00,81.1,69.5,30.15,NNE,21,3.0,6.0,68,0.00,,,0.00,Wunderground v.1.15,2013-08-27 15:18:00,
2013-08-27 11:21:00,81.2,69.2,30.15,NNW,331,2.0,3.0,67,0.00,,,0.00,Wunderground v.1.15,2013-08-27 15:21:00,
2013-08-27 11:23:00,81.3,69.7,30.15,NNW,333,0.0,3.0,68,0.00,,,0.00,Wunderground v.1.15,2013-08-27 15:23:00,
2013-08-27 11:24:00,81.5,69.9,30.15,NW,316,3.0,3.0,68,0.00,,,0.00,Wunderground v.1.15,2013-08-27 15:24:00,
2013-08-27 11:26:00,81.6,69.6,30.15,NNW,343,2.0,4.0,67,0.00,,,0.00,Wunderground v.1.15,2013-08-27 15:26:00,
2013-08-27 11:28:00,81.7,69.7,30.15,North,4,2.0,5.0,67,0.00,,,0.00,Wunderground v.1.15,2013-08-27 15:28:00,
2013-08-27 11:31:00,81.8,69.8,30.15,NNE,32,1.0,2.0,67,0.00,,,0.00,Wunderground v.1.15,2013-08-27 15:31:00,
2013-08-27 11:33:00,81.8,70.2,30.15,ENE,75,1.0,3.0,68,0.00,,,0.00,Wunderground v.1.15,2013-08-27 15:33:00,
2013-08-27 11:34:00,81.8,69.3,30.16,East,81,3.0,4.0,66,0.00,,,0.00,Wunderground v.1.15,2013-08-27 15:34:00,
2013-08-27 11:36:00,81.8,69.8,30.15,NE,38,2.0,4.0,67,0.00,,,0.00,Wunderground v.1.15,2013-08-27 15:36:00,
2013-08-27 11:38:00,81.9,69.9,30.15,North,359,2.0,4.0,67,0.00,,,0.00,Wunderground v.1.15,2013-08-27 15:38:00,
2013-08-27 11:39:00,81.9,69.4,30.15,North,349,4.0,7.0,66,0.00,,,0.00,Wunderground v.1.15,2013-08-27 15:39:00,
2013-08-27 11:41:00,81.8,69.8,30.15,NE,56,3.0,7.0,67,0.00,,,0.00,Wunderground v.1.15,2013-08-27 15:41:00,
2013-08-27 11:43:00,81.8,69.3,30.15,NNW,348,5.0,7.0,66,0.00,,,0.00,Wunderground v.1.15,2013-08-27 15:43:00,
2013-08-27 11:44:00,81.8,69.3,30.15,NNE,30,1.0,7.0,66,0.00,,,0.00,Wunderground v.1.15,2013-08-27 15:44:00,
2013-08-27 11:46:00,82.0,69.5,30.15,NNW,339,3.0,7.0,66,0.00,,,0.00,Wunderground v.1.15,2013-08-27 15:46:00,
2013-08-27 11:47:00,82.0,70.0,30.15,ENE,61,4.0,7.0,67,0.00,,,0.00,Wunderground v.1.15,2013-08-27 15:47:00,
2013-08-27 11:48:00,82.0,69.1,30.15,ENE,78,4.0,7.0,65,0.00,,,0.00,Wunderground v.1.15,2013-08-27 15:48:00,
2013-08-27 11:49:00,82.0,70.0,30.15,East,79,1.0,7.0,67,0.00,,,0.00,Wunderground v.1.15,2013-08-27 15:49:00,
2013-08-27 11:51:00,82.1,68.7,30.15,East,82,5.0,6.0,64,0.00,,,0.00,Wunderground v.1.15,2013-08-27 15:51:00,
2013-08-27 11:52:00,82.1,68.7,30.15,North,9,2.0,6.0,64,0.00,,,0.00,Wunderground v.1.15,2013-08-27 15:52:00,
2013-08-27 11:53:00,82.0,69.5,30.15,North,11,1.0,7.0,66,0.00,,,0.00,Wunderground v.1.15,2013-08-27 15:53:00,
2013-08-27 11:54:00,82.0,69.5,30.15,NNE,26,2.0,7.0,66,0.00,,,0.00,Wunderground v.1.15,2013-08-27 15:54:00,
2013-08-27 11:56:00,82.2,69.3,30.14,East,94,2.0,7.0,65,0.00,,,0.00,Wunderground v.1.15,2013-08-27 15:56:00,
2013-08-27 11:57:00,82.2,69.3,30.14,East,90,1.0,7.0,65,0.00,,,0.00,Wunderground v.1.15,2013-08-27 15:57:00,
2013-08-27 11:58:00,82.3,69.8,30.14,East,91,0.0,7.0,66,0.00,,,0.00,Wunderground v.1.15,2013-08-27 15:58:00,
2013-08-27 11:59:00,82.5,70.4,30.15,East,90,1.0,7.0,67,0.00,,,0.00,Wunderground v.1.15,2013-08-27 15:59:00,
2013-08-27 12:01:00,83.0,70.5,30.14,NNE,18,1.0,2.0,66,0.00,,,0.00,Wunderground v.1.15,2013-08-27 16:01:00,
2013-08-27 12:02:00,83.1,70.6,30.14,NNE,30,4.0,4.0,66,0.00,,,0.00,Wunderground v.1.15,2013-08-27 16:02:00,
2013-08-27 12:03:00,83.3,69.8,30.14,NNE,21,2.0,4.0,64,0.00,,,0.00,Wunderground v.1.15,2013-08-27 16:03:00,
2013-08-27 12:04:00,83.3,69.8,30.14,ENE,61,3.0,5.0,64,0.00,,,0.00,Wunderground v.1.15,2013-08-27 16:04:00,
2013-08-27 12:06:00,83.2,69.3,30.14,East,80,6.0,6.0,63,0.00,,,0.00,Wunderground v.1.15,2013-08-27 16:06:00,
2013-08-27 12:07:00,83.1,69.2,30.14,ENE,61,4.0,6.0,63,0.00,,,0.00,Wunderground v.1.15,2013-08-27 16:07:00,
2013-08-27 12:08:00,82.9,69.0,30.14,NE,36,2.0,6.0,63,0.00,,,0.00,Wunderground v.1.15,2013-08-27 16:08:00,
2013-08-27 12:09:00,82.8,68.4,30.14,NE,36,1.0,6.0,62,0.00,,,0.00,Wunderground v.1.15,2013-08-27 16:09:00,
2013-08-27 12:11:00,82.7,69.3,30.14,East,86,4.0,4.0,64,0.00,,,0.00,Wunderground v.1.15,2013-08-27 16:11:00,
2013-08-27 12:12:00,82.7,69.3,30.14,ENE,71,5.0,5.0,64,0.00,,,0.00,Wunderground v.1.15,2013-08-27 16:12:00,
2013-08-27 12:13:00,82.7,69.3,30.14,NE,36,5.0,8.0,64,0.00,,,0.00,Wunderground v.1.15,2013-08-27 16:13:00,
2013-08-27 12:14:00,82.7,68.8,30.14,NNE,15,4.0,8.0,63,0.00,,,0.00,Wunderground v.1.15,2013-08-27 16:14:00,
2013-08-27 12:16:00,82.8,69.8,30.14,ENE,77,3.0,8.0,65,0.00,,,0.00,Wunderground v.1.15,2013-08-27 16:16:00,
2013-08-27 12:17:00,82.8,69.8,30.14,NNE,21,5.0,8.0,65,0.00,,,0.00,Wunderground v.1.15,2013-08-27 16:17:00,
2013-08-27 12:18:00,82.9,69.5,30.14,North,11,3.0,8.0,64,0.00,,,0.00,Wunderground v.1.15,2013-08-27 16:18:00,
2013-08-27 12:19:00,82.9,69.0,30.14,North,4,3.0,8.0,63,0.00,,,0.00,Wunderground v.1.15,2013-08-27 16:19:00,
2013-08-27 12:21:00,83.0,70.0,30.14,NNE,32,4.0,6.0,65,0.00,,,0.00,Wunderground v.1.15,2013-08-27 16:21:00,
2013-08-27 12:22:00,83.1,70.1,30.14,ENE,68,3.0,6.0,65,0.00,,,0.00,Wunderground v.1.15,2013-08-27 16:22:00,
2013-08-27 12:23:00,83.1,69.2,30.14,NE,50,4.0,6.0,63,0.00,,,0.00,Wunderground v.1.15,2013-08-27 16:23:00,
2013-08-27 12:24:00,83.1,69.2,30.14,North,352,5.0,7.0,63,0.00,,,0.00,Wunderground v.1.15,2013-08-27 16:24:00,
2013-08-27 12:26:00,83.1,69.7,30.14,NE,41,1.0,7.0,64,0.00,,,0.00,Wunderground v.1.15,2013-08-27 16:26:00,
2013-08-27 12:27:00,83.1,69.7,30.14,NE,52,5.0,7.0,64,0.00,,,0.00,Wunderground v.1.15,2013-08-27 16:27:00,
2013-08-27 12:28:00,83.2,68.8,30.14,North,358,4.0,7.0,62,0.00,,,0.00,Wunderground v.1.15,2013-08-27 16:28:00,
2013-08-27 12:29:00,83.2,69.3,30.14,North,354,3.0,7.0,63,0.00,,,0.00,Wunderground v.1.15,2013-08-27 16:29:00,
2013-08-27 12:31:00,83.3,69.8,30.14,WNW,302,0.0,5.0,64,0.00,,,0.00,Wunderground v.1.15,2013-08-27 16:31:00,
2013-08-27 12:32:00,83.4,69.9,30.14,NNE,20,2.0,5.0,64,0.00,,,0.00,Wunderground v.1.15,2013-08-27 16:32:00,
2013-08-27 12:33:00,83.6,68.7,30.14,NE,56,3.0,5.0,61,0.00,,,0.00,Wunderground v.1.15,2013-08-27 16:33:00,
2013-08-27 12:34:00,83.6,68.7,30.14,ENE,64,2.0,5.0,61,0.00,,,0.00,Wunderground v.1.15,2013-08-27 16:34:00,
2013-08-27 12:37:00,83.7,68.8,30.14,ENE,58,1.0,5.0,61,0.00,,,0.00,Wunderground v.1.15,2013-08-27 16:37:00,
2013-08-27 12:38:00,83.6,70.1,30.14,ESE,108,1.0,5.0,64,0.00,,,0.00,Wunderground v.1.15,2013-08-27 16:38:00,
2013-08-27 12:40:00,83.7,69.8,30.13,ESE,110,2.0,2.0,63,0.00,,,0.00,Wunderground v.1.15,2013-08-27 16:40:00,
2013-08-27 12:42:00,83.8,69.9,30.13,ENE,72,1.0,2.0,63,0.00,,,0.00,Wunderground v.1.15,2013-08-27 16:42:00,
2013-08-27 12:43:00,84.1,71.5,30.13,NNE,17,1.0,2.0,66,0.00,,,0.00,Wunderground v.1.15,2013-08-27 16:43:00,
2013-08-27 12:45:00,84.3,71.7,30.13,NNW,328,3.0,5.0,66,0.00,,,0.00,Wunderground v.1.15,2013-08-27 16:45:00,
2013-08-27 12:47:00,84.7,70.2,30.13,ENE,73,3.0,5.0,62,0.00,,,0.00,Wunderground v.1.15,2013-08-27 16:47:00,
2013-08-27 12:49:00,84.7,70.2,30.13,ENE,67,2.0,5.0,62,0.00,,,0.00,Wunderground v.1.15,2013-08-27 16:49:00,
2013-08-27 12:50:00,84.7,70.7,30.13,WNW,290,1.0,2.0,63,0.00,,,0.00,Wunderground v.1.15,2013-08-27 16:50:00,
2013-08-27 12:52:00,84.9,70.4,30.13,ENE,65,0.0,3.0,62,0.00,,,0.00,Wunderground v.1.15,2013-08-27 16:52:00,
2013-08-27 12:54:00,84.9,69.5,30.13,ENE,71,4.0,5.0,60,0.00,,,0.00,Wunderground v.1.15,2013-08-27 16:54:00,
2013-08-27 12:55:00,84.8,68.4,30.13,NNE,21,5.0,5.0,58,0.00,,,0.00,Wunderground v.1.15,2013-08-27 16:55:00,
2013-08-27 12:57:00,84.5,68.6,30.13,NW,325,2.0,6.0,59,0.00,,,0.00,Wunderground v.1.15,2013-08-27 16:57:00,
2013-08-27 12:58:00,84.5,69.1,30.13,West,281,0.0,6.0,60,0.00,,,0.00,Wunderground v.1.15,2013-08-27 16:58:00,
2013-08-27 12:59:00,84.4,68.5,30.13,NNW,328,2.0,6.0,59,0.00,,,0.00,Wunderground v.1.15,2013-08-27 16:59:00,
2013-08-27 13:00:00,84.5,69.6,30.13,NW,308,1.0,3.0,61,0.00,,,0.00,Wunderground v.1.15,2013-08-27 17:00:00,
2013-08-27 13:02:00,84.6,69.2,30.13,East,86,2.0,5.0,60,0.00,,,0.00,Wunderground v.1.15,2013-08-27 17:02:00,
2013-08-27 13:03:00,84.7,70.2,30.13,NE,56,3.0,5.0,62,0.00,,,0.00,Wunderground v.1.15,2013-08-27 17:03:00,
2013-08-27 13:04:00,84.8,69.9,30.13,NNW,346,2.0,5.0,61,0.00,,,0.00,Wunderground v.1.15,2013-08-27 17:04:00,
2013-08-27 13:05:00,84.9,69.5,30.13,North,1,1.0,5.0,60,0.00,,,0.00,Wunderground v.1.15,2013-08-27 17:05:00,
2013-08-27 13:07:00,85.1,69.7,30.13,NE,46,2.0,5.0,60,0.00,,,0.00,Wunderground v.1.15,2013-08-27 17:07:00,
2013-08-27 13:08:00,85.1,70.1,30.13,East,101,2.0,5.0,61,0.00,,,0.00,Wunderground v.1.15,2013-08-27 17:08:00,
2013-08-27 13:09:00,85.2,70.2,30.13,ENE,67,3.0,5.0,61,0.00,,,0.00,Wunderground v.1.15,2013-08-27 17:09:00,
2013-08-27 13:10:00,85.2,69.7,30.13,NE,41,1.0,3.0,60,0.00,,,0.00,Wunderground v.1.15,2013-08-27 17:10:00,
2013-08-27 13:12:00,85.3,69.8,30.13,NNE,17,1.0,4.0,60,0.00,,,0.00,Wunderground v.1.15,2013-08-27 17:12:00,
2013-08-27 13:13:00,85.4,68.9,30.13,NNW,335,1.0,4.0,58,0.00,,,0.00,Wunderground v.1.15,2013-08-27 17:13:00,
2013-08-27 13:14:00,85.4,68.9,30.12,NE,54,2.0,4.0,58,0.00,,,0.00,Wunderground v.1.15,2013-08-27 17:14:00,
2013-08-27 13:15:00,85.4,68.9,30.12,WNW,284,1.0,4.0,58,0.00,,,0.00,Wunderground v.1.15,2013-08-27 17:15:00,
2013-08-27 13:17:00,85.5,68.5,30.12,NE,47,2.0,4.0,57,0.00,,,0.00,Wunderground v.1.15,2013-08-27 17:17:00,
2013-08-27 13:18:00,85.5,69.0,30.12,NE,46,2.0,4.0,58,0.00,,,0.00,Wunderground v.1.15,2013-08-27 17:18:00,
2013-08-27 13:19:00,85.5,68.0,30.12,ESE,102,2.0,4.0,56,0.00,,,0.00,Wunderground v.1.15,2013-08-27 17:19:00,
2013-08-27 13:20:00,85.4,68.4,30.12,North,350,4.0,4.0,57,0.00,,,0.00,Wunderground v.1.15,2013-08-27 17:20:00,
2013-08-27 13:22:00,85.3,68.3,30.12,NNW,328,2.0,6.0,57,0.00,,,0.00,Wunderground v.1.15,2013-08-27 17:22:00,
2013-08-27 13:23:00,85.3,67.8,30.12,NW,318,2.0,6.0,56,0.00,,,0.00,Wunderground v.1.15,2013-08-27 17:23:00,
2013-08-27 13:24:00,85.3,68.8,30.12,NNW,327,2.0,6.0,58,0.00,,,0.00,Wunderground v.1.15,2013-08-27 17:24:00,
2013-08-27 13:25:00,85.4,68.9,30.12,NW,317,0.0,6.0,58,0.00,,,0.00,Wunderground v.1.15,2013-08-27 17:25:00,
2013-08-27 13:27:00,85.7,69.7,30.12,ESE,114,1.0,6.0,59,0.00,,,0.00,Wunderground v.1.15,2013-08-27 17:27:00,
2013-08-27 13:29:00,85.8,70.3,30.12,ESE,104,4.0,6.0,60,0.00,,,0.00,Wunderground v.1.15,2013-08-27 17:29:00,
2013-08-27 13:30:00,85.9,69.4,30.12,WNW,302,2.0,3.0,58,0.00,,,0.00,Wunderground v.1.15,2013-08-27 17:30:00,
2013-08-27 13:33:00,86.0,68.5,30.12,NE,52,2.0,5.0,56,0.00,,,0.00,Wunderground v.1.15,2013-08-27 17:33:00,
2013-08-27 13:34:00,86.2,68.7,30.12,ENE,63,0.0,5.0,56,0.00,,,0.00,Wunderground v.1.15,2013-08-27 17:34:00,
2013-08-27 13:35:00,86.5,71.5,30.12,East,95,1.0,5.0,61,0.00,,,0.00,Wunderground v.1.15,2013-08-27 17:35:00,
2013-08-27 13:38:00,86.5,68.9,30.12,North,351,2.0,5.0,56,0.00,,,0.00,Wunderground v.1.15,2013-08-27 17:38:00,
2013-08-27 13:39:00,86.5,68.9,30.12,NNW,339,0.0,5.0,56,0.00,,,0.00,Wunderground v.1.15,2013-08-27 17:39:00,
2013-08-27 13:40:00,86.5,70.0,30.12,NE,42,0.0,2.0,58,0.00,,,0.00,Wunderground v.1.15,2013-08-27 17:40:00,
2013-08-27 13:43:00,86.7,69.1,30.12,NE,56,2.0,5.0,56,0.00,,,0.00,Wunderground v.1.15,2013-08-27 17:43:00,
2013-08-27 13:44:00,86.6,69.6,30.12,NE,46,2.0,5.0,57,0.00,,,0.00,Wunderground v.1.15,2013-08-27 17:44:00,
2013-08-27 13:45:00,86.7,70.2,30.11,SSW,204,1.0,5.0,58,0.00,,,0.00,Wunderground v.1.15,2013-08-27 17:45:00,
2013-08-27 13:48:00,86.9,70.3,30.12,ESE,115,0.0,5.0,58,0.00,,,0.00,Wunderground v.1.15,2013-08-27 17:48:00,
2013-08-27 13:49:00,87.1,70.0,30.12,NW,322,1.0,5.0,57,0.00,,,0.00,Wunderground v.1.15,2013-08-27 17:49:00,
2013-08-27 13:50:00,87.4,71.3,30.11,South,190,1.0,3.0,59,0.00,,,0.00,Wunderground v.1.15,2013-08-27 17:50:00,
2013-08-27 13:53:00,87.6,68.4,30.12,SW,222,1.0,3.0,53,0.00,,,0.00,Wunderground v.1.15,2013-08-27 17:53:00,
2013-08-27 13:54:00,87.7,67.9,30.11,SW,222,0.0,3.0,52,0.00,,,0.00,Wunderground v.1.15,2013-08-27 17:54:00,
2013-08-27 13:55:00,87.9,68.1,30.11,SW,221,0.0,3.0,52,0.00,,,0.00,Wunderground v.1.15,2013-08-27 17:55:00,
2013-08-27 13:58:00,88.1,68.8,30.11,East,79,2.0,3.0,53,0.00,,,0.00,Wunderground v.1.15,2013-08-27 17:58:00,
2013-08-27 13:59:00,88.2,70.0,30.11,NE,39,1.0,3.0,55,0.00,,,0.00,Wunderground v.1.15,2013-08-27 17:59:00,
2013-08-27 14:00:00,87.9,68.1,30.11,ENE,61,4.0,6.0,52,0.00,,,0.00,Wunderground v.1.15,2013-08-27 18:00:00,
2013-08-27 14:03:00,87.5,69.3,30.11,ENE,77,2.0,6.0,55,0.00,,,0.00,Wunderground v.1.15,2013-08-27 18:03:00,
2013-08-27 14:04:00,87.4,69.3,30.11,ESE,114,1.0,6.0,55,0.00,,,0.00,Wunderground v.1.15,2013-08-27 18:04:00,
2013-08-27 14:06:00,87.4,70.3,30.11,ESE,114,0.0,6.0,57,0.00,,,0.00,Wunderground v.1.15,2013-08-27 18:06:00,
2013-08-27 14:08:00,87.4,68.7,30.11,ENE,77,2.0,6.0,54,0.00,,,0.00,Wunderground v.1.15,2013-08-27 18:08:00,
2013-08-27 14:09:00,87.3,68.1,30.11,West,266,1.0,6.0,53,0.00,,,0.00,Wunderground v.1.15,2013-08-27 18:09:00,
2013-08-27 14:10:00,87.2,68.0,30.11,ENE,64,2.0,2.0,53,0.00,,,0.00,Wunderground v.1.15,2013-08-27 18:10:00,
2013-08-27 14:11:00,87.2,68.5,30.11,ESE,116,0.0,2.0,54,0.00,,,0.00,Wunderground v.1.15,2013-08-27 18:11:00,
2013-08-27 14:13:00,87.2,69.1,30.11,East,79,3.0,4.0,55,0.00,,,0.00,Wunderground v.1.15,2013-08-27 18:13:00,
2013-08-27 14:14:00,87.2,69.1,30.11,ENE,72,6.0,7.0,55,0.00,,,0.00,Wunderground v.1.15,2013-08-27 18:14:00,
2013-08-27 14:15:00,87.1,67.9,30.11,ENE,75,3.0,7.0,53,0.00,,,0.00,Wunderground v.1.15,2013-08-27 18:15:00,
2013-08-27 14:16:00,86.8,67.6,30.11,ENE,73,3.0,7.0,53,0.00,,,0.00,Wunderground v.1.15,2013-08-27 18:16:00,
2013-08-27 14:18:00,86.5,67.9,30.11,ENE,77,2.0,7.0,54,0.00,,,0.00,Wunderground v.1.15,2013-08-27 18:18:00,
2013-08-27 14:19:00,86.5,68.4,30.11,East,86,3.0,7.0,55,0.00,,,0.00,Wunderground v.1.15,2013-08-27 18:19:00,
2013-08-27 14:20:00,86.4,67.8,30.11,ESE,107,3.0,3.0,54,0.00,,,0.00,Wunderground v.1.15,2013-08-27 18:20:00,
2013-08-27 14:21:00,86.3,68.2,30.11,WSW,243,1.0,3.0,55,0.00,,,0.00,Wunderground v.1.15,2013-08-27 18:21:00,
2013-08-27 14:23:00,86.4,68.3,30.10,NE,36,2.0,3.0,55,0.00,,,0.00,Wunderground v.1.15,2013-08-27 18:23:00,
2013-08-27 14:24:00,86.5,68.4,30.10,North,6,2.0,3.0,55,0.00,,,0.00,Wunderground v.1.15,2013-08-27 18:24:00,
2013-08-27 14:25:00,86.6,68.5,30.10,NNE,33,2.0,3.0,55,0.00,,,0.00,Wunderground v.1.15,2013-08-27 18:25:00,
2013-08-27 14:26:00,86.7,68.1,30.10,NNW,333,0.0,5.0,54,0.00,,,0.00,Wunderground v.1.15,2013-08-27 18:26:00,
2013-08-27 14:28:00,86.9,69.3,30.10,ESE,112,2.0,5.0,56,0.00,,,0.00,Wunderground v.1.15,2013-08-27 18:28:00,
2013-08-27 14:29:00,86.8,68.2,30.10,ESE,114,1.0,5.0,54,0.00,,,0.00,Wunderground v.1.15,2013-08-27 18:29:00,
2013-08-27 14:30:00,86.8,68.2,30.10,NNW,330,2.0,2.0,54,0.00,,,0.00,Wunderground v.1.15,2013-08-27 18:30:00,
2013-08-27 14:31:00,86.9,67.7,30.10,NNW,327,2.0,3.0,53,0.00,,,0.00,Wunderground v.1.15,2013-08-27 18:31:00,
2013-08-27 14:33:00,87.2,68.0,30.10,WSW,242,2.0,3.0,53,0.00,,,0.00,Wunderground v.1.15,2013-08-27 18:33:00,
2013-08-27 14:34:00,87.2,68.5,30.10,SSE,160,1.0,3.0,54,0.00,,,0.00,Wunderground v.1.15,2013-08-27 18:34:00,
2013-08-27 14:35:00,87.4,68.7,30.10,SSE,166,1.0,3.0,54,0.00,,,0.00,Wunderground v.1.15,2013-08-27 18:35:00,
2013-08-27 14:36:00,87.7,69.0,30.10,SE,128,1.0,3.0,54,0.00,,,0.00,Wunderground v.1.15,2013-08-27 18:36:00,
2013-08-27 14:39:00,88.2,69.5,30.10,SW,215,1.0,3.0,54,0.00,,,0.00,Wunderground v.1.15,2013-08-27 18:39:00,
2013-08-27 14:40:00,88.4,68.5,30.10,ENE,74,2.0,2.0,52,0.00,,,0.00,Wunderground v.1.15,2013-08-27 18:40:00,
2013-08-27 14:41:00,88.4,68.5,30.10,SSW,201,0.0,2.0,52,0.00,,,0.00,Wunderground v.1.15,2013-08-27 18:41:00,
2013-08-27 14:44:00,88.7,68.8,30.10,South,191,0.0,2.0,52,0.00,,,0.00,Wunderground v.1.15,2013-08-27 18:44:00,
2013-08-27 14:45:00,88.8,69.5,30.10,ENE,69,2.0,3.0,53,0.00,,,0.00,Wunderground v.1.15,2013-08-27 18:45:00,
2013-08-27 14:46:00,88.6,68.2,30.10,ENE,58,3.0,4.0,51,0.00,,,0.00,Wunderground v.1.15,2013-08-27 18:46:00,
2013-08-27 14:49:00,87.8,68.0,30.10,East,79,1.0,5.0,52,0.00,,,0.00,Wunderground v.1.15,2013-08-27 18:49:00,
2013-08-27 14:50:00,87.4,68.2,30.09,East,80,1.0,1.0,53,0.00,,,0.00,Wunderground v.1.15,2013-08-27 18:50:00,
2013-08-27 14:51:00,87.3,69.2,30.09,North,11,1.0,1.0,55,0.00,,,0.00,Wunderground v.1.15,2013-08-27 18:51:00,
2013-08-27 14:54:00,87.2,68.0,30.09,NNW,346,2.0,3.0,53,0.00,,,0.00,Wunderground v.1.15,2013-08-27 18:54:00,
2013-08-27 14:55:00,87.1,67.3,30.09,North,354,1.0,3.0,52,0.00,,,0.00,Wunderground v.1.15,2013-08-27 18:55:00,
2013-08-27 14:56:00,87.1,67.3,30.09,NNW,341,1.0,3.0,52,0.00,,,0.00,Wunderground v.1.15,2013-08-27 18:56:00,
2013-08-27 14:57:00,87.1,66.8,30.09,North,359,2.0,3.0,51,0.00,,,0.00,Wunderground v.1.15,2013-08-27 18:57:00,
2013-08-27 14:59:00,87.0,66.7,30.09,NNE,16,1.0,3.0,51,0.00,,,0.00,Wunderground v.1.15,2013-08-27 18:59:00,
2013-08-27 15:00:00,87.1,67.9,30.08,North,4,1.0,1.0,53,0.00,,,0.00,Wunderground v.1.15,2013-08-27 19:00:00,
2013-08-27 15:01:00,87.2,67.4,30.09,WNW,302,0.0,3.0,52,0.00,,,0.00,Wunderground v.1.15,2013-08-27 19:01:00,
2013-08-27 15:02:00,87.3,67.0,30.09,SE,142,0.0,3.0,51,0.00,,,0.00,Wunderground v.1.15,2013-08-27 19:02:00,
2013-08-27 15:04:00,87.6,68.9,30.09,North,11,1.0,3.0,54,0.00,,,0.00,Wunderground v.1.15,2013-08-27 19:04:00,
2013-08-27 15:05:00,87.8,68.0,30.09,North,356,2.0,3.0,52,0.00,,,0.00,Wunderground v.1.15,2013-08-27 19:05:00,
2013-08-27 15:06:00,88.0,68.7,30.09,NNE,13,2.0,5.0,53,0.00,,,0.00,Wunderground v.1.15,2013-08-27 19:06:00,
2013-08-27 15:07:00,88.1,68.3,30.09,NE,43,2.0,5.0,52,0.00,,,0.00,Wunderground v.1.15,2013-08-27 19:07:00,
2013-08-27 15:09:00,87.8,66.3,30.09,ENE,73,1.0,5.0,49,0.00,,,0.00,Wunderground v.1.15,2013-08-27 19:09:00,
2013-08-27 15:10:00,87.7,67.3,30.09,ENE,76,1.0,2.0,51,0.00,,,0.00,Wunderground v.1.15,2013-08-27 19:10:00,
2013-08-27 15:11:00,87.6,67.2,30.08,East,96,0.0,2.0,51,0.00,,,0.00,Wunderground v.1.15,2013-08-27 19:11:00,
2013-08-27 15:12:00,87.6,67.8,30.08,South,169,2.0,2.0,52,0.00,,,0.00,Wunderground v.1.15,2013-08-27 19:12:00,
2013-08-27 15:14:00,87.9,66.9,30.08,WSW,238,2.0,3.0,50,0.00,,,0.00,Wunderground v.1.15,2013-08-27 19:14:00,
2013-08-27 15:15:00,87.9,66.9,30.08,WSW,253,2.0,3.0,50,0.00,,,0.00,Wunderground v.1.15,2013-08-27 19:15:00,
2013-08-27 15:16:00,87.8,66.8,30.08,SW,218,2.0,3.0,50,0.00,,,0.00,Wunderground v.1.15,2013-08-27 19:16:00,
2013-08-27 15:17:00,87.8,66.8,30.08,SW,218,2.0,3.0,50,0.00,,,0.00,Wunderground v.1.15,2013-08-27 19:17:00,
2013-08-27 15:19:00,87.7,66.8,30.08,SW,215,2.0,3.0,50,0.00,,,0.00,Wunderground v.1.15,2013-08-27 19:19:00,
2013-08-27 15:20:00,87.6,66.7,30.08,WSW,249,1.0,2.0,50,0.00,,,0.00,Wunderground v.1.15,2013-08-27 19:20:00,
2013-08-27 15:21:00,87.6,67.2,30.08,WNW,286,1.0,2.0,51,0.00,,,0.00,Wunderground v.1.15,2013-08-27 19:21:00,
2013-08-27 15:22:00,87.6,67.8,30.08,WNW,291,1.0,2.0,52,0.00,,,0.00,Wunderground v.1.15,2013-08-27 19:22:00,
2013-08-27 15:24:00,87.8,66.8,30.08,NW,309,0.0,3.0,50,0.00,,,0.00,Wunderground v.1.15,2013-08-27 19:24:00,
2013-08-27 15:25:00,87.9,67.5,30.08,NW,308,0.0,3.0,51,0.00,,,0.00,Wunderground v.1.15,2013-08-27 19:25:00,
2013-08-27 15:26:00,88.1,67.7,30.08,NW,318,0.0,3.0,51,0.00,,,0.00,Wunderground v.1.15,2013-08-27 19:26:00,
2013-08-27 15:27:00,88.3,67.9,30.08,East,81,1.0,3.0,51,0.00,,,0.00,Wunderground v.1.15,2013-08-27 19:27:00,
2013-08-27 15:29:00,88.8,68.9,30.08,West,277,2.0,3.0,52,0.00,,,0.00,Wunderground v.1.15,2013-08-27 19:29:00,
2013-08-27 15:30:00,89.0,67.9,30.08,SW,228,0.0,1.0,50,0.00,,,0.00,Wunderground v.1.15,2013-08-27 19:30:00,
2013-08-27 15:31:00,89.1,69.2,30.08,SSW,212,1.0,2.0,52,0.00,,,0.00,Wunderground v.1.15,2013-08-27 19:31:00,
2013-08-27 15:32:00,89.1,67.5,30.08,WSW,256,1.0,2.0,49,0.00,,,0.00,Wunderground v.1.15,2013-08-27 19:32:00,
2013-08-27 15:34:00,89.1,67.5,30.08,East,91,0.0,2.0,49,0.00,,,0.00,Wunderground v.1.15,2013-08-27 19:34:00,
2013-08-27 15:35:00,89.3,69.4,30.08,East,91,0.0,2.0,52,0.00,,,0.00,Wunderground v.1.15,2013-08-27 19:35:00,
2013-08-27 15:36:00,89.4,68.9,30.08,East,91,0.0,2.0,51,0.00,,,0.00,Wunderground v.1.15,2013-08-27 19:36:00,
2013-08-27 15:37:00,89.7,69.2,30.08,East,91,0.0,2.0,51,0.00,,,0.00,Wunderground v.1.15,2013-08-27 19:37:00,
2013-08-27 15:39:00,90.2,67.9,30.08,ENE,61,1.0,2.0,48,0.00,,,0.00,Wunderground v.1.15,2013-08-27 19:39:00,
2013-08-27 15:40:00,90.3,69.1,30.08,NNW,333,0.0,1.0,50,0.00,,,0.00,Wunderground v.1.15,2013-08-27 19:40:00,
2013-08-27 15:41:00,90.4,68.0,30.08,ENE,67,2.0,2.0,48,0.00,,,0.00,Wunderground v.1.15,2013-08-27 19:41:00,
2013-08-27 15:43:00,90.3,66.7,30.08,ENE,61,0.0,2.0,46,0.00,,,0.00,Wunderground v.1.15,2013-08-27 19:43:00,
2013-08-27 15:44:00,90.4,68.0,30.08,ENE,61,0.0,2.0,48,0.00,,,0.00,Wunderground v.1.15,2013-08-27 19:44:00,
2013-08-27 15:45:00,90.5,70.5,30.07,SW,224,1.0,2.0,52,0.00,,,0.00,Wunderground v.1.15,2013-08-27 19:45:00,
2013-08-27 15:46:00,90.7,70.1,30.08,SSE,148,2.0,2.0,51,0.00,,,0.00,Wunderground v.1.15,2013-08-27 19:46:00,
2013-08-27 15:48:00,90.9,69.7,30.08,SE,131,1.0,2.0,50,0.00,,,0.00,Wunderground v.1.15,2013-08-27 19:48:00,
2013-08-27 15:50:00,91.1,71.0,30.08,South,184,4.0,4.0,52,0.00,,,0.00,Wunderground v.1.15,2013-08-27 19:50:00,
2013-08-27 15:51:00,91.2,68.2,30.08,SW,224,0.0,4.0,47,0.00,,,0.00,Wunderground v.1.15,2013-08-27 19:51:00,
2013-08-27 15:53:00,91.1,68.7,30.07,SSW,207,1.0,4.0,48,0.00,,,0.00,Wunderground v.1.15,2013-08-27 19:53:00,
2013-08-27 15:55:00,91.4,69.6,30.07,SW,214,0.0,4.0,49,0.00,,,0.00,Wunderground v.1.15,2013-08-27 19:55:00,
2013-08-27 15:56:00,91.6,69.7,30.07,SSW,197,1.0,4.0,49,0.00,,,0.00,Wunderground v.1.15,2013-08-27 19:56:00,
2013-08-27 15:58:00,91.3,67.0,30.07,SW,221,4.0,4.0,45,0.00,,,0.00,Wunderground v.1.15,2013-08-27 19:58:00,
2013-08-27 16:00:00,90.8,67.8,30.07,WSW,239,4.0,4.0,47,0.00,,,0.00,Wunderground v.1.15,2013-08-27 20:00:00,
2013-08-27 16:01:00,90.4,66.8,30.07,WSW,253,1.0,4.0,46,0.00,,,0.00,Wunderground v.1.15,2013-08-27 20:01:00,
2013-08-27 16:02:00,90.1,65.9,30.07,SW,226,2.0,4.0,45,0.00,,,0.00,Wunderground v.1.15,2013-08-27 20:02:00,
2013-08-27 16:03:00,89.8,67.5,30.07,WSW,255,2.0,4.0,48,0.00,,,0.00,Wunderground v.1.15,2013-08-27 20:03:00,
2013-08-27 16:05:00,89.2,68.1,30.07,SW,226,2.0,5.0,50,0.00,,,0.00,Wunderground v.1.15,2013-08-27 20:05:00,
2013-08-27 16:06:00,89.0,67.9,30.07,SSW,193,1.0,5.0,50,0.00,,,0.00,Wunderground v.1.15,2013-08-27 20:06:00,
2013-08-27 16:07:00,88.9,67.3,30.07,SSW,200,1.0,5.0,49,0.00,,,0.00,Wunderground v.1.15,2013-08-27 20:07:00,
2013-08-27 16:08:00,88.8,68.3,30.07,SW,229,1.0,5.0,51,0.00,,,0.00,Wunderground v.1.15,2013-08-27 20:08:00,
2013-08-27 16:10:00,88.8,68.3,30.07,SW,215,0.0,2.0,51,0.00,,,0.00,Wunderground v.1.15,2013-08-27 20:10:00,
2013-08-27 16:11:00,88.9,67.9,30.07,SW,214,0.0,2.0,50,0.00,,,0.00,Wunderground v.1.15,2013-08-27 20:11:00,
2013-08-27 16:12:00,89.0,67.4,30.07,SW,215,0.0,2.0,49,0.00,,,0.00,Wunderground v.1.15,2013-08-27 20:12:00,
2013-08-27 16:13:00,89.1,69.2,30.07,SSW,195,0.0,2.0,52,0.00,,,0.00,Wunderground v.1.15,2013-08-27 20:13:00,
2013-08-27 16:15:00,89.4,70.6,30.07,SW,228,0.0,2.0,54,0.00,,,0.00,Wunderground v.1.15,2013-08-27 20:15:00,
2013-08-27 16:16:00,89.4,68.9,30.07,SW,228,0.0,2.0,51,0.00,,,0.00,Wunderground v.1.15,2013-08-27 20:16:00,
2013-08-27 16:17:00,89.5,70.7,30.07,SW,229,0.0,2.0,54,0.00,,,0.00,Wunderground v.1.15,2013-08-27 20:17:00,
2013-08-27 16:18:00,89.5,70.7,30.07,SW,229,0.0,2.0,54,0.00,,,0.00,Wunderground v.1.15,2013-08-27 20:18:00,
2013-08-27 16:20:00,89.3,70.5,30.07,SW,229,0.0,0.0,54,0.00,,,0.00,Wunderground v.1.15,2013-08-27 20:20:00,
2013-08-27 16:21:00,89.2,70.4,30.07,SW,229,0.0,0.0,54,0.00,,,0.00,Wunderground v.1.15,2013-08-27 20:21:00,
2013-08-27 16:22:00,89.2,70.9,30.07,SW,229,0.0,0.0,55,0.00,,,0.00,Wunderground v.1.15,2013-08-27 20:22:00,
2013-08-27 16:23:00,89.0,70.7,30.07,WSW,242,1.0,2.0,55,0.00,,,0.00,Wunderground v.1.15,2013-08-27 20:23:00,
2013-08-27 16:25:00,88.4,69.1,30.07,WSW,238,0.0,2.0,53,0.00,,,0.00,Wunderground v.1.15,2013-08-27 20:25:00,
2013-08-27 16:26:00,88.4,70.7,30.07,SE,145,1.0,2.0,56,0.00,,,0.00,Wunderground v.1.15,2013-08-27 20:26:00,
2013-08-27 16:27:00,88.3,69.5,30.07,SSE,165,1.0,2.0,54,0.00,,,0.00,Wunderground v.1.15,2013-08-27 20:27:00,
2013-08-27 16:28:00,88.2,70.0,30.07,West,263,1.0,2.0,55,0.00,,,0.00,Wunderground v.1.15,2013-08-27 20:28:00,
2013-08-27 16:30:00,88.0,69.8,30.07,SSW,207,2.0,3.0,55,0.00,,,0.00,Wunderground v.1.15,2013-08-27 20:30:00,
2013-08-27 16:31:00,88.0,68.7,30.07,ESE,120,3.0,3.0,53,0.00,,,0.00,Wunderground v.1.15,2013-08-27 20:31:00,
2013-08-27 16:32:00,87.8,68.5,30.07,SE,145,1.0,3.0,53,0.00,,,0.00,Wunderground v.1.15,2013-08-27 20:32:00,
2013-08-27 16:33:00,87.6,70.0,30.07,SW,232,0.0,3.0,56,0.00,,,0.00,Wunderground v.1.15,2013-08-27 20:33:00,
2013-08-27 16:35:00,87.4,69.3,30.07,SSW,201,1.0,3.0,55,0.00,,,0.00,Wunderground v.1.15,2013-08-27 20:35:00,
2013-08-27 16:36:00,87.3,69.2,30.07,SSW,210,1.0,3.0,55,0.00,,,0.00,Wunderground v.1.15,2013-08-27 20:36:00,
2013-08-27 16:37:00,87.2,70.6,30.07,SSW,210,0.0,3.0,58,0.00,,,0.00,Wunderground v.1.15,2013-08-27 20:37:00,
2013-08-27 16:38:00,87.0,70.9,30.07,SSW,210,0.0,3.0,59,0.00,,,0.00,Wunderground v.1.15,2013-08-27 20:38:00,
2013-08-27 16:40:00,86.9,71.3,30.07,SSW,209,0.0,1.0,60,0.00,,,0.00,Wunderground v.1.15,2013-08-27 20:40:00,
2013-08-27 16:41:00,86.8,71.2,30.07,SSW,210,0.0,1.0,60,0.00,,,0.00,Wunderground v.1.15,2013-08-27 20:41:00,
2013-08-27 16:42:00,86.7,70.2,30.07,SSW,201,0.0,1.0,58,0.00,,,0.00,Wunderground v.1.15,2013-08-27 20:42:00,
2013-08-27 16:44:00,86.6,71.5,30.07,SSW,207,1.0,2.0,61,0.00,,,0.00,Wunderground v.1.15,2013-08-27 20:44:00,
2013-08-27 16:46:00,86.4,69.9,30.07,WSW,242,0.0,2.0,58,0.00,,,0.00,Wunderground v.1.15,2013-08-27 20:46:00,
2013-08-27 16:47:00,86.2,71.6,30.07,WSW,240,0.0,2.0,62,0.00,,,0.00,Wunderground v.1.15,2013-08-27 20:47:00,
2013-08-27 16:49:00,86.0,71.9,30.07,WSW,240,0.0,2.0,63,0.00,,,0.00,Wunderground v.1.15,2013-08-27 20:49:00,
2013-08-27 16:51:00,85.8,70.3,30.07,WSW,239,0.0,1.0,60,0.00,,,0.00,Wunderground v.1.15,2013-08-27 20:51:00,
2013-08-27 16:53:00,85.8,72.7,30.07,WSW,239,0.0,1.0,65,0.00,,,0.00,Wunderground v.1.15,2013-08-27 20:53:00,
2013-08-27 16:54:00,85.8,72.7,30.07,WSW,239,0.0,1.0,65,0.00,,,0.00,Wunderground v.1.15,2013-08-27 20:54:00,
2013-08-27 16:56:00,85.7,71.7,30.06,WSW,249,0.0,1.0,63,0.00,,,0.00,Wunderground v.1.15,2013-08-27 20:56:00,
2013-08-27 16:58:00,85.6,72.5,30.07,SW,224,1.0,1.0,65,0.00,,,0.00,Wunderground v.1.15,2013-08-27 20:58:00,
2013-08-27 16:59:00,85.6,72.5,30.07,SW,222,0.0,1.0,65,0.00,,,0.00,Wunderground v.1.15,2013-08-27 20:59:00,
2013-08-27 17:01:00,85.6,71.1,30.06,SW,232,1.0,1.0,62,0.00,,,0.00,Wunderground v.1.15,2013-08-27 21:01:00,
2013-08-27 17:02:00,85.6,71.6,30.06,WSW,253,1.0,1.0,63,0.00,,,0.00,Wunderground v.1.15,2013-08-27 21:02:00,
2013-08-27 17:03:00,85.5,71.5,30.07,WSW,253,0.0,1.0,63,0.00,,,0.00,Wunderground v.1.15,2013-08-27 21:03:00,
2013-08-27 17:04:00,85.5,71.0,30.06,WSW,253,0.0,1.0,62,0.00,,,0.00,Wunderground v.1.15,2013-08-27 21:04:00,
2013-08-27 17:06:00,85.5,72.4,30.06,WSW,253,0.0,1.0,65,0.00,,,0.00,Wunderground v.1.15,2013-08-27 21:06:00,
2013-08-27 17:07:00,85.5,73.3,30.06,WSW,253,0.0,1.0,67,0.00,,,0.00,Wunderground v.1.15,2013-08-27 21:07:00,
2013-08-27 17:08:00,85.6,72.9,30.06,WSW,240,1.0,1.0,66,0.00,,,0.00,Wunderground v.1.15,2013-08-27 21:08:00,
2013-08-27 17:09:00,85.5,72.8,30.06,WSW,242,1.0,1.0,66,0.00,,,0.00,Wunderground v.1.15,2013-08-27 21:09:00,
2013-08-27 17:11:00,85.5,71.0,30.06,SSW,194,1.0,1.0,62,0.00,,,0.00,Wunderground v.1.15,2013-08-27 21:11:00,
2013-08-27 17:12:00,85.5,71.9,30.06,SSW,194,1.0,1.0,64,0.00,,,0.00,Wunderground v.1.15,2013-08-27 21:12:00,
2013-08-27 17:13:00,85.6,72.0,30.06,SSW,207,0.0,1.0,64,0.00,,,0.00,Wunderground v.1.15,2013-08-27 21:13:00,
2013-08-27 17:14:00,85.7,72.1,30.06,SW,218,0.0,1.0,64,0.00,,,0.00,Wunderground v.1.15,2013-08-27 21:14:00,
2013-08-27 17:16:00,85.9,71.4,30.06,WSW,240,2.0,3.0,62,0.00,,,0.00,Wunderground v.1.15,2013-08-27 21:16:00,
2013-08-27 17:17:00,85.9,70.9,30.06,SSW,204,2.0,3.0,61,0.00,,,0.00,Wunderground v.1.15,2013-08-27 21:17:00,
2013-08-27 17:18:00,85.9,70.9,30.06,WSW,256,1.0,3.0,61,0.00,,,0.00,Wunderground v.1.15,2013-08-27 21:18:00,
2013-08-27 17:19:00,86.0,71.5,30.06,WSW,253,0.0,3.0,62,0.00,,,0.00,Wunderground v.1.15,2013-08-27 21:19:00,
2013-08-27 17:23:00,86.1,70.1,30.06,SW,215,2.0,3.0,59,0.00,,,0.00,Wunderground v.1.15,2013-08-27 21:23:00,
2013-08-27 17:27:00,86.2,69.2,30.06,WSW,246,4.0,5.0,57,0.00,,,0.00,Wunderground v.1.15,2013-08-27 21:27:00,
2013-08-27 17:28:00,86.2,69.2,30.06,SW,229,3.0,5.0,57,0.00,,,0.00,Wunderground v.1.15,2013-08-27 21:28:00,
2013-08-27 17:29:00,86.2,69.7,30.06,SSW,202,4.0,5.0,58,0.00,,,0.00,Wunderground v.1.15,2013-08-27 21:29:00,
2013-08-27 17:30:00,86.2,69.7,30.06,SW,214,3.0,3.0,58,0.00,,,0.00,Wunderground v.1.15,2013-08-27 21:30:00,
2013-08-27 17:32:00,86.2,70.2,30.07,West,275,1.0,3.0,59,0.00,,,0.00,Wunderground v.1.15,2013-08-27 21:32:00,
2013-08-27 17:33:00,86.3,69.8,30.06,South,184,2.0,3.0,58,0.00,,,0.00,Wunderground v.1.15,2013-08-27 21:33:00,
2013-08-27 17:34:00,86.3,69.8,30.06,WNW,285,2.0,3.0,58,0.00,,,0.00,Wunderground v.1.15,2013-08-27 21:34:00,
2013-08-27 17:37:00,86.3,70.3,30.07,West,262,0.0,3.0,59,0.00,,,0.00,Wunderground v.1.15,2013-08-27 21:37:00,
2013-08-27 17:38:00,86.3,70.3,30.07,West,262,1.0,3.0,59,0.00,,,0.00,Wunderground v.1.15,2013-08-27 21:38:00,
2013-08-27 17:42:00,86.3,70.8,30.06,West,263,1.0,2.0,60,0.00,,,0.00,Wunderground v.1.15,2013-08-27 21:42:00,
2013-08-27 17:45:00,86.4,70.9,30.06,SW,232,4.0,4.0,60,0.00,,,0.00,Wunderground v.1.15,2013-08-27 21:45:00,
2013-08-27 17:47:00,86.3,70.3,30.06,SW,218,3.0,5.0,59,0.00,,,0.00,Wunderground v.1.15,2013-08-27 21:47:00,
2013-08-27 17:50:00,86.1,70.1,30.06,SSW,200,1.0,2.0,59,0.00,,,0.00,Wunderground v.1.15,2013-08-27 21:50:00,
2013-08-27 17:52:00,86.1,69.6,30.06,South,179,1.0,4.0,58,0.00,,,0.00,Wunderground v.1.15,2013-08-27 21:52:00,
2013-08-27 17:55:00,86.1,70.6,30.07,WSW,249,1.0,6.0,60,0.00,,,0.00,Wunderground v.1.15,2013-08-27 21:55:00,
2013-08-27 17:57:00,86.1,70.6,30.07,West,264,2.0,6.0,60,0.00,,,0.00,Wunderground v.1.15,2013-08-27 21:57:00,
2013-08-27 18:00:00,86.0,71.5,30.07,SW,222,3.0,3.0,62,0.00,,,0.00,Wunderground v.1.15,2013-08-27 22:00:00,
2013-08-27 18:02:00,85.9,71.4,30.07,West,262,0.0,4.0,62,0.00,,,0.00,Wunderground v.1.15,2013-08-27 22:02:00,
2013-08-27 18:05:00,85.8,71.3,30.07,West,259,1.0,4.0,62,0.00,,,0.00,Wunderground v.1.15,2013-08-27 22:05:00,
2013-08-27 18:07:00,85.7,71.7,30.07,WSW,257,4.0,4.0,63,0.00,,,0.00,Wunderground v.1.15,2013-08-27 22:07:00,
2013-08-27 18:10:00,85.4,71.4,30.07,SW,234,1.0,5.0,63,0.00,,,0.00,Wunderground v.1.15,2013-08-27 22:10:00,
2013-08-27 18:11:00,85.4,71.4,30.07,West,271,4.0,5.0,63,0.00,,,0.00,Wunderground v.1.15,2013-08-27 22:11:00,
2013-08-27 18:12:00,85.2,70.7,30.07,SW,215,2.0,5.0,62,0.00,,,0.00,Wunderground v.1.15,2013-08-27 22:12:00,
2013-08-27 18:15:00,85.1,70.6,30.07,WSW,253,0.0,5.0,62,0.00,,,0.00,Wunderground v.1.15,2013-08-27 22:15:00,
2013-08-27 18:16:00,85.1,70.6,30.07,WSW,253,0.0,5.0,62,0.00,,,0.00,Wunderground v.1.15,2013-08-27 22:16:00,
2013-08-27 18:17:00,85.1,70.6,30.07,West,260,2.0,5.0,62,0.00,,,0.00,Wunderground v.1.15,2013-08-27 22:17:00,
2013-08-27 18:20:00,85.3,71.7,30.07,SSW,194,1.0,2.0,64,0.00,,,0.00,Wunderground v.1.15,2013-08-27 22:20:00,
2013-08-27 18:21:00,85.3,71.7,30.07,SSW,200,1.0,2.0,64,0.00,,,0.00,Wunderground v.1.15,2013-08-27 22:21:00,
2013-08-27 18:22:00,85.4,70.9,30.07,SW,232,1.0,3.0,62,0.00,,,0.00,Wunderground v.1.15,2013-08-27 22:22:00,
2013-08-27 18:26:00,85.2,71.2,30.07,WSW,238,2.0,4.0,63,0.00,,,0.00,Wunderground v.1.15,2013-08-27 22:26:00,
2013-08-27 18:27:00,85.0,70.5,30.07,WNW,294,1.0,4.0,62,0.00,,,0.00,Wunderground v.1.15,2013-08-27 22:27:00,
2013-08-27 18:31:00,84.7,70.7,30.07,West,277,1.0,3.0,63,0.00,,,0.00,Wunderground v.1.15,2013-08-27 22:31:00,
2013-08-27 18:32:00,84.6,71.1,30.07,West,262,5.0,5.0,64,0.00,,,0.00,Wunderground v.1.15,2013-08-27 22:32:00,
2013-08-27 18:36:00,83.9,70.4,30.07,West,259,1.0,5.0,64,0.00,,,0.00,Wunderground v.1.15,2013-08-27 22:36:00,
2013-08-27 18:37:00,83.8,70.3,30.07,WSW,248,2.0,5.0,64,0.00,,,0.00,Wunderground v.1.15,2013-08-27 22:37:00,
2013-08-27 18:41:00,83.4,70.4,30.07,West,263,0.0,2.0,65,0.00,,,0.00,Wunderground v.1.15,2013-08-27 22:41:00,
2013-08-27 18:42:00,83.4,70.8,30.07,WSW,253,1.0,2.0,66,0.00,,,0.00,Wunderground v.1.15,2013-08-27 22:42:00,
2013-08-27 18:43:00,83.4,71.3,30.07,WSW,253,0.0,2.0,67,0.00,,,0.00,Wunderground v.1.15,2013-08-27 22:43:00,
2013-08-27 18:46:00,83.0,70.5,30.07,WSW,248,1.0,2.0,66,0.00,,,0.00,Wunderground v.1.15,2013-08-27 22:46:00,
2013-08-27 18:47:00,82.9,70.8,30.07,WSW,248,0.0,2.0,67,0.00,,,0.00,Wunderground v.1.15,2013-08-27 22:47:00,
2013-08-27 18:48:00,82.9,70.8,30.07,WSW,248,0.0,2.0,67,0.00,,,0.00,Wunderground v.1.15,2013-08-27 22:48:00,
2013-08-27 18:51:00,82.6,70.5,30.07,SW,235,0.0,1.0,67,0.00,,,0.00,Wunderground v.1.15,2013-08-27 22:51:00,
2013-08-27 18:52:00,82.6,70.5,30.07,SW,235,0.0,1.0,67,0.00,,,0.00,Wunderground v.1.15,2013-08-27 22:52:00,
2013-08-27 18:53:00,82.5,70.4,30.07,SW,229,1.0,1.0,67,0.00,,,0.00,Wunderground v.1.15,2013-08-27 22:53:00,
2013-08-27 18:56:00,82.4,71.2,30.07,West,264,0.0,1.0,69,0.00,,,0.00,Wunderground v.1.15,2013-08-27 22:56:00,
2013-08-27 18:57:00,82.4,70.8,30.07,West,264,0.0,1.0,68,0.00,,,0.00,Wunderground v.1.15,2013-08-27 22:57:00,
2013-08-27 18:58:00,82.3,70.7,30.07,West,264,0.0,1.0,68,0.00,,,0.00,Wunderground v.1.15,2013-08-27 22:58:00,
2013-08-27 19:01:00,82.1,70.9,30.07,West,260,0.0,1.0,69,0.00,,,0.00,Wunderground v.1.15,2013-08-27 23:01:00,
2013-08-27 19:02:00,82.1,70.5,30.07,West,260,0.0,1.0,68,0.00,,,0.00,Wunderground v.1.15,2013-08-27 23:02:00,
2013-08-27 19:03:00,82.0,70.8,30.07,West,259,0.0,1.0,69,0.00,,,0.00,Wunderground v.1.15,2013-08-27 23:03:00,
2013-08-27 19:06:00,81.8,70.6,30.07,West,260,0.0,1.0,69,0.00,,,0.00,Wunderground v.1.15,2013-08-27 23:06:00,
2013-08-27 19:07:00,81.7,71.0,30.07,West,264,0.0,1.0,70,0.00,,,0.00,Wunderground v.1.15,2013-08-27 23:07:00,
2013-08-27 19:08:00,81.6,70.9,30.07,West,259,2.0,2.0,70,0.00,,,0.00,Wunderground v.1.15,2013-08-27 23:08:00,
2013-08-27 19:11:00,81.1,70.4,30.07,West,264,0.0,1.0,70,0.00,,,0.00,Wunderground v.1.15,2013-08-27 23:11:00,
2013-08-27 19:12:00,81.0,70.3,30.07,West,264,0.0,1.0,70,0.00,,,0.00,Wunderground v.1.15,2013-08-27 23:12:00,
2013-08-27 19:13:00,81.0,70.3,30.07,West,264,0.0,1.0,70,0.00,,,0.00,Wunderground v.1.15,2013-08-27 23:13:00,
2013-08-27 19:16:00,80.7,70.4,30.07,West,264,0.0,1.0,71,0.00,,,0.00,Wunderground v.1.15,2013-08-27 23:16:00,
2013-08-27 19:17:00,80.5,70.6,30.07,West,260,0.0,1.0,72,0.00,,,0.00,Wunderground v.1.15,2013-08-27 23:17:00,
2013-08-27 19:18:00,80.5,70.6,30.07,West,260,0.0,1.0,72,0.00,,,0.00,Wunderground v.1.15,2013-08-27 23:18:00,
2013-08-27 19:21:00,80.3,70.9,30.07,West,260,0.0,0.0,73,0.00,,,0.00,Wunderground v.1.15,2013-08-27 23:21:00,
2013-08-27 19:22:00,80.1,70.3,30.06,West,260,0.0,1.0,72,0.00,,,0.00,Wunderground v.1.15,2013-08-27 23:22:00,
2013-08-27 19:23:00,80.1,70.3,30.06,West,259,1.0,1.0,72,0.00,,,0.00,Wunderground v.1.15,2013-08-27 23:23:00,
2013-08-27 19:26:00,79.8,70.4,30.07,West,260,0.0,1.0,73,0.00,,,0.00,Wunderground v.1.15,2013-08-27 23:26:00,
2013-08-27 19:27:00,79.8,70.4,30.07,West,260,0.0,1.0,73,0.00,,,0.00,Wunderground v.1.15,2013-08-27 23:27:00,
2013-08-27 19:28:00,79.8,70.4,30.07,West,260,0.0,1.0,73,0.00,,,0.00,Wunderground v.1.15,2013-08-27 23:28:00,
2013-08-27 19:31:00,79.6,70.6,30.07,West,260,0.0,0.0,74,0.00,,,0.00,Wunderground v.1.15,2013-08-27 23:31:00,
2013-08-27 19:32:00,79.6,70.6,30.07,West,259,0.0,0.0,74,0.00,,,0.00,Wunderground v.1.15,2013-08-27 23:32:00,
2013-08-27 19:33:00,79.5,70.5,30.06,West,260,0.0,0.0,74,0.00,,,0.00,Wunderground v.1.15,2013-08-27 23:33:00,
2013-08-27 19:36:00,79.2,71.0,30.06,West,259,0.0,0.0,76,0.00,,,0.00,Wunderground v.1.15,2013-08-27 23:36:00,
2013-08-27 19:37:00,79.2,71.0,30.06,West,259,0.0,0.0,76,0.00,,,0.00,Wunderground v.1.15,2013-08-27 23:37:00,
2013-08-27 19:38:00,79.0,71.2,30.07,West,259,0.0,0.0,77,0.00,,,0.00,Wunderground v.1.15,2013-08-27 23:38:00,
2013-08-27 19:41:00,78.6,71.2,30.07,West,259,0.0,0.0,78,0.00,,,0.00,Wunderground v.1.15,2013-08-27 23:41:00,
2013-08-27 19:42:00,78.5,71.1,30.07,West,260,0.0,0.0,78,0.00,,,0.00,Wunderground v.1.15,2013-08-27 23:42:00,
2013-08-27 19:43:00,78.3,70.9,30.06,West,259,0.0,0.0,78,0.00,,,0.00,Wunderground v.1.15,2013-08-27 23:43:00,
2013-08-27 19:46:00,77.9,70.9,30.07,West,259,0.0,0.0,79,0.00,,,0.00,Wunderground v.1.15,2013-08-27 23:46:00,
2013-08-27 19:47:00,77.9,70.9,30.07,West,260,0.0,0.0,79,0.00,,,0.00,Wunderground v.1.15,2013-08-27 23:47:00,
2013-08-27 19:48:00,77.7,71.0,30.07,West,260,0.0,0.0,80,0.00,,,0.00,Wunderground v.1.15,2013-08-27 23:48:00,
2013-08-27 19:49:00,77.7,71.0,30.07,West,259,0.0,0.0,80,0.00,,,0.00,Wunderground v.1.15,2013-08-27 23:49:00,
2013-08-27 19:51:00,77.5,70.8,30.07,West,260,0.0,0.0,80,0.00,,,0.00,Wunderground v.1.15,2013-08-27 23:51:00,
2013-08-27 19:52:00,77.5,71.2,30.07,West,259,0.0,0.0,81,0.00,,,0.00,Wunderground v.1.15,2013-08-27 23:52:00,
2013-08-27 19:53:00,77.4,71.1,30.07,West,259,0.0,0.0,81,0.00,,,0.00,Wunderground v.1.15,2013-08-27 23:53:00,
2013-08-27 19:54:00,77.4,71.1,30.07,West,259,0.0,0.0,81,0.00,,,0.00,Wunderground v.1.15,2013-08-27 23:54:00,
2013-08-27 19:56:00,77.2,71.3,30.07,West,259,0.0,0.0,82,0.00,,,0.00,Wunderground v.1.15,2013-08-27 23:56:00,
2013-08-27 19:57:00,77.1,71.2,30.07,West,259,0.0,0.0,82,0.00,,,0.00,Wunderground v.1.15,2013-08-27 23:57:00,
2013-08-27 19:58:00,77.1,71.2,30.07,West,259,0.0,0.0,82,0.00,,,0.00,Wunderground v.1.15,2013-08-27 23:58:00,
2013-08-27 19:59:00,76.9,71.0,30.07,West,260,0.0,0.0,82,0.00,,,0.00,Wunderground v.1.15,2013-08-27 23:59:00,
2013-08-27 20:02:00,76.7,71.1,30.07,West,260,0.0,0.0,83,0.00,,,0.00,Wunderground v.1.15,2013-08-28 00:02:00,
2013-08-27 20:03:00,76.6,71.0,30.07,West,259,0.0,0.0,83,0.00,,,0.00,Wunderground v.1.15,2013-08-28 00:03:00,
2013-08-27 20:04:00,76.5,70.9,30.07,West,259,0.0,0.0,83,0.00,,,0.00,Wunderground v.1.15,2013-08-28 00:04:00,
2013-08-27 20:07:00,76.3,71.1,30.07,West,260,0.0,0.0,84,0.00,,,0.00,Wunderground v.1.15,2013-08-28 00:07:00,
2013-08-27 20:08:00,76.3,71.1,30.07,West,260,0.0,0.0,84,0.00,,,0.00,Wunderground v.1.15,2013-08-28 00:08:00,
2013-08-27 20:09:00,76.2,71.0,30.07,West,259,0.0,0.0,84,0.00,,,0.00,Wunderground v.1.15,2013-08-28 00:09:00,
2013-08-27 20:12:00,76.1,70.9,30.07,West,260,0.0,0.0,84,0.00,,,0.00,Wunderground v.1.15,2013-08-28 00:12:00,
2013-08-27 20:13:00,76.0,70.8,30.07,West,259,0.0,0.0,84,0.00,,,0.00,Wunderground v.1.15,2013-08-28 00:13:00,
2013-08-27 20:14:00,75.9,70.7,30.07,West,259,0.0,0.0,84,0.00,,,0.00,Wunderground v.1.15,2013-08-28 00:14:00,
2013-08-27 20:17:00,75.8,71.0,30.07,West,259,0.0,0.0,85,0.00,,,0.00,Wunderground v.1.15,2013-08-28 00:17:00,
2013-08-27 20:18:00,75.8,71.0,30.07,West,259,0.0,0.0,85,0.00,,,0.00,Wunderground v.1.15,2013-08-28 00:18:00,
2013-08-27 20:19:00,75.7,70.9,30.07,West,260,0.0,0.0,85,0.00,,,0.00,Wunderground v.1.15,2013-08-28 00:19:00,
2013-08-27 20:22:00,75.6,71.1,30.07,West,260,0.0,0.0,86,0.00,,,0.00,Wunderground v.1.15,2013-08-28 00:22:00,
2013-08-27 20:23:00,75.5,71.0,30.07,West,259,0.0,0.0,86,0.00,,,0.00,Wunderground v.1.15,2013-08-28 00:23:00,
2013-08-27 20:24:00,75.5,71.0,30.07,West,259,0.0,0.0,86,0.00,,,0.00,Wunderground v.1.15,2013-08-28 00:24:00,
2013-08-27 20:27:00,75.3,70.8,30.07,West,259,0.0,0.0,86,0.00,,,0.00,Wunderground v.1.15,2013-08-28 00:27:00,
2013-08-27 20:28:00,75.2,70.7,30.07,West,259,0.0,0.0,86,0.00,,,0.00,Wunderground v.1.15,2013-08-28 00:28:00,
2013-08-27 20:29:00,75.2,70.7,30.07,West,260,0.0,0.0,86,0.00,,,0.00,Wunderground v.1.15,2013-08-28 00:29:00,
2013-08-27 20:32:00,75.0,70.5,30.07,West,259,0.0,0.0,86,0.00,,,0.00,Wunderground v.1.15,2013-08-28 00:32:00,
2013-08-27 20:33:00,74.9,70.4,30.07,West,259,0.0,0.0,86,0.00,,,0.00,Wunderground v.1.15,2013-08-28 00:33:00,
2013-08-27 20:34:00,74.9,70.8,30.07,West,260,0.0,0.0,87,0.00,,,0.00,Wunderground v.1.15,2013-08-28 00:34:00,
2013-08-27 20:35:00,74.9,70.8,30.07,West,259,0.0,0.0,87,0.00,,,0.00,Wunderground v.1.15,2013-08-28 00:35:00,
2013-08-27 20:37:00,74.7,70.6,30.07,West,259,0.0,0.0,87,0.00,,,0.00,Wunderground v.1.15,2013-08-28 00:37:00,
2013-08-27 20:38:00,74.6,70.5,30.07,West,259,0.0,0.0,87,0.00,,,0.00,Wunderground v.1.15,2013-08-28 00:38:00,
2013-08-27 20:39:00,74.6,70.5,30.07,West,259,0.0,0.0,87,0.00,,,0.00,Wunderground v.1.15,2013-08-28 00:39:00,
2013-08-27 20:40:00,74.5,70.4,30.07,West,260,0.0,0.0,87,0.00,,,0.00,Wunderground v.1.15,2013-08-28 00:40:00,
2013-08-27 20:42:00,74.3,70.5,30.07,West,260,0.0,0.0,88,0.00,,,0.00,Wunderground v.1.15,2013-08-28 00:42:00,
2013-08-27 20:43:00,74.3,70.5,30.07,West,260,0.0,0.0,88,0.00,,,0.00,Wunderground v.1.15,2013-08-28 00:43:00,
2013-08-27 20:44:00,74.3,70.5,30.07,West,259,0.0,0.0,88,0.00,,,0.00,Wunderground v.1.15,2013-08-28 00:44:00,
2013-08-27 20:45:00,74.2,70.4,30.07,West,260,0.0,0.0,88,0.00,,,0.00,Wunderground v.1.15,2013-08-28 00:45:00,
2013-08-27 20:47:00,74.0,70.2,30.07,West,260,0.0,0.0,88,0.00,,,0.00,Wunderground v.1.15,2013-08-28 00:47:00,
2013-08-27 20:48:00,73.9,70.1,30.07,West,259,0.0,0.0,88,0.00,,,0.00,Wunderground v.1.15,2013-08-28 00:48:00,
2013-08-27 20:49:00,73.9,70.1,30.07,West,260,0.0,0.0,88,0.00,,,0.00,Wunderground v.1.15,2013-08-28 00:49:00,
2013-08-27 20:50:00,73.9,70.1,30.07,West,259,0.0,0.0,88,0.00,,,0.00,Wunderground v.1.15,2013-08-28 00:50:00,
2013-08-27 20:53:00,73.6,69.8,30.07,West,259,0.0,0.0,88,0.00,,,0.00,Wunderground v.1.15,2013-08-28 00:53:00,
2013-08-27 20:54:00,73.5,69.7,30.07,West,259,0.0,0.0,88,0.00,,,0.00,Wunderground v.1.15,2013-08-28 00:54:00,
2013-08-27 20:55:00,73.5,70.1,30.07,West,259,0.0,0.0,89,0.00,,,0.00,Wunderground v.1.15,2013-08-28 00:55:00,
2013-08-27 20:58:00,73.3,69.9,30.07,West,259,0.0,0.0,89,0.00,,,0.00,Wunderground v.1.15,2013-08-28 00:58:00,
2013-08-27 20:59:00,73.2,70.1,30.07,West,259,0.0,0.0,90,0.00,,,0.00,Wunderground v.1.15,2013-08-28 00:59:00,
2013-08-27 21:00:00,73.2,70.1,30.07,West,259,0.0,0.0,90,0.00,,,0.00,Wunderground v.1.15,2013-08-28 01:00:00,
2013-08-27 21:03:00,72.9,69.8,30.07,West,260,0.0,0.0,90,0.00,,,0.00,Wunderground v.1.15,2013-08-28 01:03:00,
2013-08-27 21:04:00,72.9,70.1,30.07,West,260,0.0,0.0,91,0.00,,,0.00,Wunderground v.1.15,2013-08-28 01:04:00,
2013-08-27 21:05:00,72.8,70.0,30.07,West,259,0.0,0.0,91,0.00,,,0.00,Wunderground v.1.15,2013-08-28 01:05:00,
2013-08-27 21:08:00,72.7,69.9,30.08,West,260,0.0,0.0,91,0.00,,,0.00,Wunderground v.1.15,2013-08-28 01:08:00,
2013-08-27 21:09:00,72.6,69.8,30.08,West,260,0.0,0.0,91,0.00,,,0.00,Wunderground v.1.15,2013-08-28 01:09:00,
2013-08-27 21:10:00,72.6,70.1,30.08,West,259,0.0,0.0,92,0.00,,,0.00,Wunderground v.1.15,2013-08-28 01:10:00,
2013-08-27 21:13:00,72.4,69.9,30.08,West,259,0.0,0.0,92,0.00,,,0.00,Wunderground v.1.15,2013-08-28 01:13:00,
2013-08-27 21:14:00,72.4,69.9,30.08,West,260,0.0,0.0,92,0.00,,,0.00,Wunderground v.1.15,2013-08-28 01:14:00,
2013-08-27 21:15:00,72.4,69.9,30.08,West,260,0.0,0.0,92,0.00,,,0.00,Wunderground v.1.15,2013-08-28 01:15:00,
2013-08-27 21:18:00,72.2,69.7,30.08,West,260,0.0,0.0,92,0.00,,,0.00,Wunderground v.1.15,2013-08-28 01:18:00,
2013-08-27 21:19:00,72.1,69.6,30.08,West,260,0.0,0.0,92,0.00,,,0.00,Wunderground v.1.15,2013-08-28 01:19:00,
2013-08-27 21:20:00,72.1,69.6,30.08,West,259,0.0,0.0,92,0.00,,,0.00,Wunderground v.1.15,2013-08-28 01:20:00,
2013-08-27 21:23:00,71.9,69.4,30.08,West,259,0.0,0.0,92,0.00,,,0.00,Wunderground v.1.15,2013-08-28 01:23:00,
2013-08-27 21:25:00,71.8,69.3,30.08,West,259,0.0,0.0,92,0.00,,,0.00,Wunderground v.1.15,2013-08-28 01:25:00,
2013-08-27 21:28:00,71.8,69.7,30.08,West,260,0.0,0.0,93,0.00,,,0.00,Wunderground v.1.15,2013-08-28 01:28:00,
2013-08-27 21:30:00,71.7,69.6,30.08,West,259,0.0,0.0,93,0.00,,,0.00,Wunderground v.1.15,2013-08-28 01:30:00,
2013-08-27 21:33:00,71.6,69.5,30.08,West,260,0.0,0.0,93,0.00,,,0.00,Wunderground v.1.15,2013-08-28 01:33:00,
2013-08-27 21:35:00,71.6,69.5,30.08,West,259,0.0,0.0,93,0.00,,,0.00,Wunderground v.1.15,2013-08-28 01:35:00,
2013-08-27 21:36:00,71.6,69.8,30.08,West,260,0.0,0.0,94,0.00,,,0.00,Wunderground v.1.15,2013-08-28 01:36:00,
2013-08-27 21:38:00,71.5,69.7,30.08,West,260,0.0,0.0,94,0.00,,,0.00,Wunderground v.1.15,2013-08-28 01:38:00,
2013-08-27 21:40:00,71.5,69.7,30.08,West,260,0.0,0.0,94,0.00,,,0.00,Wunderground v.1.15,2013-08-28 01:40:00,
2013-08-27 21:41:00,71.5,69.7,30.08,West,260,0.0,0.0,94,0.00,,,0.00,Wunderground v.1.15,2013-08-28 01:41:00,
2013-08-27 21:43:00,71.4,69.6,30.08,West,260,0.0,0.0,94,0.00,,,0.00,Wunderground v.1.15,2013-08-28 01:43:00,
2013-08-27 21:44:00,71.4,69.6,30.08,West,260,0.0,0.0,94,0.00,,,0.00,Wunderground v.1.15,2013-08-28 01:44:00,
2013-08-27 21:45:00,71.4,69.6,30.08,West,259,0.0,0.0,94,0.00,,,0.00,Wunderground v.1.15,2013-08-28 01:45:00,
2013-08-27 21:46:00,71.4,69.6,30.08,West,259,0.0,0.0,94,0.00,,,0.00,Wunderground v.1.15,2013-08-28 01:46:00,
2013-08-27 21:48:00,71.3,69.5,30.08,West,260,0.0,0.0,94,0.00,,,0.00,Wunderground v.1.15,2013-08-28 01:48:00,
2013-08-27 21:49:00,71.3,69.5,30.08,West,259,0.0,0.0,94,0.00,,,0.00,Wunderground v.1.15,2013-08-28 01:49:00,
2013-08-27 21:51:00,71.3,69.5,30.08,West,259,0.0,0.0,94,0.00,,,0.00,Wunderground v.1.15,2013-08-28 01:51:00,
2013-08-27 21:52:00,71.3,69.5,30.08,West,260,0.0,0.0,94,0.00,,,0.00,Wunderground v.1.15,2013-08-28 01:52:00,
2013-08-27 21:53:00,71.2,69.4,30.08,West,260,0.0,0.0,94,0.00,,,0.00,Wunderground v.1.15,2013-08-28 01:53:00,
2013-08-27 21:54:00,71.2,69.4,30.08,West,260,0.0,0.0,94,0.00,,,0.00,Wunderground v.1.15,2013-08-28 01:54:00,
2013-08-27 21:56:00,71.2,69.4,30.08,West,260,0.0,0.0,94,0.00,,,0.00,Wunderground v.1.15,2013-08-28 01:56:00,
2013-08-27 21:57:00,71.1,69.3,30.09,West,259,0.0,0.0,94,0.00,,,0.00,Wunderground v.1.15,2013-08-28 01:57:00,
2013-08-27 21:58:00,71.1,69.3,30.09,West,259,0.0,0.0,94,0.00,,,0.00,Wunderground v.1.15,2013-08-28 01:58:00,
2013-08-27 21:59:00,71.1,69.3,30.09,West,259,0.0,0.0,94,0.00,,,0.00,Wunderground v.1.15,2013-08-28 01:59:00,
2013-08-27 22:01:00,71.1,69.3,30.09,West,259,0.0,0.0,94,0.00,,,0.00,Wunderground v.1.15,2013-08-28 02:01:00,
2013-08-27 22:02:00,71.1,69.3,30.09,West,259,0.0,0.0,94,0.00,,,0.00,Wunderground v.1.15,2013-08-28 02:02:00,
2013-08-27 22:03:00,71.1,69.6,30.09,West,260,0.0,0.0,95,0.00,,,0.00,Wunderground v.1.15,2013-08-28 02:03:00,
2013-08-27 22:04:00,71.1,69.6,30.09,West,259,0.0,0.0,95,0.00,,,0.00,Wunderground v.1.15,2013-08-28 02:04:00,
2013-08-27 22:06:00,71.1,69.6,30.09,West,259,0.0,0.0,95,0.00,,,0.00,Wunderground v.1.15,2013-08-28 02:06:00,
2013-08-27 22:07:00,71.1,69.6,30.09,West,260,0.0,0.0,95,0.00,,,0.00,Wunderground v.1.15,2013-08-28 02:07:00,
2013-08-27 22:08:00,71.1,69.6,30.09,West,260,0.0,0.0,95,0.00,,,0.00,Wunderground v.1.15,2013-08-28 02:08:00,
2013-08-27 22:09:00,71.1,69.6,30.09,West,259,0.0,0.0,95,0.00,,,0.00,Wunderground v.1.15,2013-08-28 02:09:00,
2013-08-27 22:11:00,71.0,69.5,30.09,West,259,0.0,0.0,95,0.00,,,0.00,Wunderground v.1.15,2013-08-28 02:11:00,
2013-08-27 22:12:00,71.0,69.5,30.09,West,259,0.0,0.0,95,0.00,,,0.00,Wunderground v.1.15,2013-08-28 02:12:00,
2013-08-27 22:13:00,71.0,69.5,30.09,West,259,0.0,0.0,95,0.00,,,0.00,Wunderground v.1.15,2013-08-28 02:13:00,
2013-08-27 22:15:00,71.0,69.5,30.09,West,260,0.0,0.0,95,0.00,,,0.00,Wunderground v.1.15,2013-08-28 02:15:00,
2013-08-27 22:16:00,71.0,69.5,30.09,West,260,0.0,0.0,95,0.00,,,0.00,Wunderground v.1.15,2013-08-28 02:16:00,
2013-08-27 22:17:00,71.0,69.5,30.09,West,259,0.0,0.0,95,0.00,,,0.00,Wunderground v.1.15,2013-08-28 02:17:00,
2013-08-27 22:18:00,70.9,69.4,30.09,West,260,0.0,0.0,95,0.00,,,0.00,Wunderground v.1.15,2013-08-28 02:18:00,
2013-08-27 22:20:00,70.9,69.4,30.08,West,259,0.0,0.0,95,0.00,,,0.00,Wunderground v.1.15,2013-08-28 02:20:00,
2013-08-27 22:21:00,70.9,69.4,30.08,West,259,0.0,0.0,95,0.00,,,0.00,Wunderground v.1.15,2013-08-28 02:21:00,
2013-08-27 22:22:00,70.9,69.4,30.08,West,259,0.0,0.0,95,0.00,,,0.00,Wunderground v.1.15,2013-08-28 02:22:00,
2013-08-27 22:23:00,70.8,69.3,30.08,West,260,0.0,0.0,95,0.00,,,0.00,Wunderground v.1.15,2013-08-28 02:23:00,
2013-08-27 22:25:00,70.8,69.3,30.09,West,259,0.0,0.0,95,0.00,,,0.00,Wunderground v.1.15,2013-08-28 02:25:00,
2013-08-27 22:27:00,70.7,69.2,30.09,West,260,0.0,0.0,95,0.00,,,0.00,Wunderground v.1.15,2013-08-28 02:27:00,
2013-08-27 22:28:00,70.6,69.1,30.09,West,260,0.0,0.0,95,0.00,,,0.00,Wunderground v.1.15,2013-08-28 02:28:00,
2013-08-27 22:30:00,70.6,69.1,30.09,West,259,0.0,0.0,95,0.00,,,0.00,Wunderground v.1.15,2013-08-28 02:30:00,
2013-08-27 22:32:00,70.5,69.0,30.09,West,259,0.0,0.0,95,0.00,,,0.00,Wunderground v.1.15,2013-08-28 02:32:00,
2013-08-27 22:33:00,70.5,69.0,30.09,West,259,0.0,0.0,95,0.00,,,0.00,Wunderground v.1.15,2013-08-28 02:33:00,
2013-08-27 22:35:00,70.5,69.0,30.09,West,260,0.0,0.0,95,0.00,,,0.00,Wunderground v.1.15,2013-08-28 02:35:00,
2013-08-27 22:37:00,70.4,68.9,30.09,West,259,0.0,0.0,95,0.00,,,0.00,Wunderground v.1.15,2013-08-28 02:37:00,
2013-08-27 22:38:00,70.4,68.9,30.09,West,259,0.0,0.0,95,0.00,,,0.00,Wunderground v.1.15,2013-08-28 02:38:00,
2013-08-27 22:40:00,70.3,68.8,30.09,West,260,0.0,0.0,95,0.00,,,0.00,Wunderground v.1.15,2013-08-28 02:40:00,
2013-08-27 22:42:00,70.3,68.8,30.09,West,260,0.0,0.0,95,0.00,,,0.00,Wunderground v.1.15,2013-08-28 02:42:00,
2013-08-27 22:43:00,70.3,68.8,30.09,West,260,0.0,0.0,95,0.00,,,0.00,Wunderground v.1.15,2013-08-28 02:43:00,
2013-08-27 22:45:00,70.2,68.7,30.09,West,259,0.0,0.0,95,0.00,,,0.00,Wunderground v.1.15,2013-08-28 02:45:00,
2013-08-27 22:47:00,70.1,68.6,30.09,West,260,0.0,0.0,95,0.00,,,0.00,Wunderground v.1.15,2013-08-28 02:47:00,
2013-08-27 22:48:00,70.0,68.5,30.09,West,260,0.0,0.0,95,0.00,,,0.00,Wunderground v.1.15,2013-08-28 02:48:00,
2013-08-27 22:50:00,69.9,68.4,30.09,West,259,0.0,0.0,95,0.00,,,0.00,Wunderground v.1.15,2013-08-28 02:50:00,
2013-08-27 22:52:00,69.9,68.4,30.09,West,260,0.0,0.0,95,0.00,,,0.00,Wunderground v.1.15,2013-08-28 02:52:00,
2013-08-27 22:53:00,69.9,68.4,30.09,West,260,0.0,0.0,95,0.00,,,0.00,Wunderground v.1.15,2013-08-28 02:53:00,
2013-08-27 22:54:00,69.9,68.4,30.09,West,259,0.0,0.0,95,0.00,,,0.00,Wunderground v.1.15,2013-08-28 02:54:00,
2013-08-27 22:55:00,69.9,68.7,30.09,West,260,0.0,0.0,96,0.00,,,0.00,Wunderground v.1.15,2013-08-28 02:55:00,
2013-08-27 22:57:00,69.8,68.6,30.09,West,260,0.0,0.0,96,0.00,,,0.00,Wunderground v.1.15,2013-08-28 02:57:00,
2013-08-27 22:58:00,69.8,68.6,30.09,West,260,0.0,0.0,96,0.00,,,0.00,Wunderground v.1.15,2013-08-28 02:58:00,
2013-08-27 22:59:00,69.8,68.6,30.09,West,260,0.0,0.0,96,0.00,,,0.00,Wunderground v.1.15,2013-08-28 02:59:00,
2013-08-27 23:00:00,69.7,68.5,30.09,West,260,0.0,0.0,96,0.00,,,0.00,Wunderground v.1.15,2013-08-28 03:00:00,
2013-08-27 23:02:00,69.7,68.5,30.09,West,260,0.0,0.0,96,0.00,,,0.00,Wunderground v.1.15,2013-08-28 03:02:00,
2013-08-27 23:03:00,69.6,68.4,30.09,West,260,0.0,0.0,96,0.00,,,0.00,Wunderground v.1.15,2013-08-28 03:03:00,
2013-08-27 23:04:00,69.6,68.4,30.09,West,260,0.0,0.0,96,0.00,,,0.00,Wunderground v.1.15,2013-08-28 03:04:00,
2013-08-27 23:05:00,69.6,68.4,30.09,West,259,0.0,0.0,96,0.00,,,0.00,Wunderground v.1.15,2013-08-28 03:05:00,
2013-08-27 23:07:00,69.5,68.3,30.09,West,259,0.0,0.0,96,0.00,,,0.00,Wunderground v.1.15,2013-08-28 03:07:00,
2013-08-27 23:08:00,69.5,68.3,30.09,West,260,0.0,0.0,96,0.00,,,0.00,Wunderground v.1.15,2013-08-28 03:08:00,
2013-08-27 23:09:00,69.5,68.3,30.09,West,259,0.0,0.0,96,0.00,,,0.00,Wunderground v.1.15,2013-08-28 03:09:00,
2013-08-27 23:10:00,69.5,68.3,30.09,West,259,0.0,0.0,96,0.00,,,0.00,Wunderground v.1.15,2013-08-28 03:10:00,
2013-08-27 23:13:00,69.5,68.3,30.09,West,260,0.0,0.0,96,0.00,,,0.00,Wunderground v.1.15,2013-08-28 03:13:00,
2013-08-27 23:14:00,69.5,68.3,30.09,West,260,0.0,0.0,96,0.00,,,0.00,Wunderground v.1.15,2013-08-28 03:14:00,
2013-08-27 23:15:00,69.5,68.3,30.09,West,259,0.0,0.0,96,0.00,,,0.00,Wunderground v.1.15,2013-08-28 03:15:00,
2013-08-27 23:18:00,69.4,68.2,30.09,West,260,0.0,0.0,96,0.00,,,0.00,Wunderground v.1.15,2013-08-28 03:18:00,
2013-08-27 23:19:00,69.4,68.2,30.09,West,260,0.0,0.0,96,0.00,,,0.00,Wunderground v.1.15,2013-08-28 03:19:00,
2013-08-27 23:20:00,69.4,68.2,30.09,West,260,0.0,0.0,96,0.00,,,0.00,Wunderground v.1.15,2013-08-28 03:20:00,
2013-08-27 23:23:00,69.2,68.0,30.09,West,259,0.0,0.0,96,0.00,,,0.00,Wunderground v.1.15,2013-08-28 03:23:00,
2013-08-27 23:24:00,69.2,68.0,30.09,West,259,0.0,0.0,96,0.00,,,0.00,Wunderground v.1.15,2013-08-28 03:24:00,
2013-08-27 23:25:00,69.2,68.0,30.09,West,260,0.0,0.0,96,0.00,,,0.00,Wunderground v.1.15,2013-08-28 03:25:00,
2013-08-27 23:28:00,69.1,67.9,30.09,West,260,0.0,0.0,96,0.00,,,0.00,Wunderground v.1.15,2013-08-28 03:28:00,
2013-08-27 23:29:00,69.0,67.8,30.09,West,259,0.0,0.0,96,0.00,,,0.00,Wunderground v.1.15,2013-08-28 03:29:00,
2013-08-27 23:30:00,69.0,67.8,30.09,WSW,258,0.0,0.0,96,0.00,,,0.00,Wunderground v.1.15,2013-08-28 03:30:00,
2013-08-27 23:33:00,69.0,67.8,30.09,West,260,0.0,0.0,96,0.00,,,0.00,Wunderground v.1.15,2013-08-28 03:33:00,
2013-08-27 23:34:00,69.0,67.8,30.09,West,260,0.0,0.0,96,0.00,,,0.00,Wunderground v.1.15,2013-08-28 03:34:00,
2013-08-27 23:35:00,69.0,67.8,30.09,West,260,0.0,0.0,96,0.00,,,0.00,Wunderground v.1.15,2013-08-28 03:35:00,
2013-08-27 23:36:00,69.0,67.8,30.09,West,260,0.0,0.0,96,0.00,,,0.00,Wunderground v.1.15,2013-08-28 03:36:00,
2013-08-27 23:38:00,68.9,67.7,30.09,West,260,0.0,0.0,96,0.00,,,0.00,Wunderground v.1.15,2013-08-28 03:38:00,
2013-08-27 23:39:00,68.9,67.7,30.09,West,260,0.0,0.0,96,0.00,,,0.00,Wunderground v.1.15,2013-08-28 03:39:00,
2013-08-27 23:40:00,68.8,67.6,30.09,West,259,0.0,0.0,96,0.00,,,0.00,Wunderground v.1.15,2013-08-28 03:40:00,
2013-08-27 23:41:00,68.8,67.6,30.09,West,259,0.0,0.0,96,0.00,,,0.00,Wunderground v.1.15,2013-08-28 03:41:00,
2013-08-27 23:43:00,68.7,67.5,30.09,West,260,0.0,0.0,96,0.00,,,0.00,Wunderground v.1.15,2013-08-28 03:43:00,
2013-08-27 23:44:00,68.7,67.5,30.09,West,259,0.0,0.0,96,0.00,,,0.00,Wunderground v.1.15,2013-08-28 03:44:00,
2013-08-27 23:46:00,68.6,67.4,30.09,West,260,0.0,0.0,96,0.00,,,0.00,Wunderground v.1.15,2013-08-28 03:46:00,
2013-08-27 23:48:00,68.5,67.3,30.09,West,260,0.0,0.0,96,0.00,,,0.00,Wunderground v.1.15,2013-08-28 03:48:00,
2013-08-27 23:49:00,68.4,67.2,30.09,West,260,0.0,0.0,96,0.00,,,0.00,Wunderground v.1.15,2013-08-28 03:49:00,
2013-08-27 23:50:00,68.4,67.2,30.09,West,260,0.0,0.0,96,0.00,,,0.00,Wunderground v.1.15,2013-08-28 03:50:00,
2013-08-27 23:51:00,68.3,67.1,30.09,West,259,0.0,0.0,96,0.00,,,0.00,Wunderground v.1.15,2013-08-28 03:51:00,
2013-08-27 23:53:00,68.3,67.1,30.09,West,260,0.0,0.0,96,0.00,,,0.00,Wunderground v.1.15,2013-08-28 03:53:00,
2013-08-27 23:54:00,68.3,67.1,30.09,West,259,0.0,0.0,96,0.00,,,0.00,Wunderground v.1.15,2013-08-28 03:54:00,
2013-08-27 23:55:00,68.2,67.0,30.09,West,259,0.0,0.0,96,0.00,,,0.00,Wunderground v.1.15,2013-08-28 03:55:00,
2013-08-27 23:56:00,68.3,67.1,30.09,West,259,0.0,0.0,96,0.00,,,0.00,Wunderground v.1.15,2013-08-28 03:56:00,
2013-08-27 23:57:00,68.2,67.0,30.09,West,259,0.0,0.0,96,0.00,,,0.00,Wunderground v.1.15,2013-08-28 03:57:00,
2013-08-27 23:58:00,68.2,67.0,30.09,West,260,0.0,0.0,96,0.00,,,0.00,Wunderground v.1.15,2013-08-28 03:58:00,
2013-08-27 23:59:00,68.2,67.0,30.09,West,260,0.0,0.0,96,0.00,,,0.00,Wunderground v.1.15,2013-08-28 03:59:00,